Time,TemperatureF,DewpointF,PressureIn,WindDirection,WindDirectionDegrees,WindSpeedMPH,WindSpeedGustMPH,Humidity,HourlyPrecipIn,Conditions,Clouds,dailyrainin,SolarRadiationWatts/m^2,SoftwareType,DateUTC
2013-03-23 00:00:00,30.7,24.4,30.12,NE,36,2.0,6.0,77,0.00,,BKN100,0.00,0.00,VWS V14.00,2013-03-23 05:00:00,
2013-03-23 00:01:00,30.6,24.3,30.12,NE,47,3.0,4.0,77,0.00,,OVC100,0.00,0.00,VWS V14.00,2013-03-23 05:01:00,
2013-03-23 00:02:00,30.7,24.4,30.12,NE,48,0.0,4.0,77,0.00,,OVC100,0.00,0.00,VWS V14.00,2013-03-23 05:02:00,
2013-03-23 00:03:00,30.7,24.4,30.12,NE,48,2.0,4.0,77,0.00,,OVC100,0.00,0.00,VWS V14.00,2013-03-23 05:03:00,
2013-03-23 00:04:00,30.7,24.4,30.12,NE,47,2.0,4.0,77,0.00,,OVC100,0.00,0.00,VWS V14.00,2013-03-23 05:04:00,
2013-03-23 00:05:00,30.7,24.4,30.12,NE,47,1.0,4.0,77,0.00,,BKN100,0.00,0.00,VWS V14.00,2013-03-23 05:05:00,
2013-03-23 00:06:00,30.7,24.4,30.12,ENE,60,0.0,6.0,77,0.00,,OVC100,0.00,0.00,VWS V14.00,2013-03-23 05:06:00,
2013-03-23 00:08:00,30.7,24.7,30.12,ENE,60,2.0,6.0,78,0.00,,OVC100,0.00,0.00,VWS V14.00,2013-03-23 05:08:00,
2013-03-23 00:09:00,30.7,24.7,30.12,NE,54,2.0,3.0,78,0.00,,OVC100,0.00,0.00,VWS V14.00,2013-03-23 05:09:00,
2013-03-23 00:10:00,30.6,24.6,30.12,NE,56,2.0,6.0,78,0.00,,BKN100,0.00,0.00,VWS V14.00,2013-03-23 05:10:00,
2013-03-23 00:11:00,30.7,24.7,30.12,NE,46,3.0,5.0,78,0.00,,OVC100,0.00,0.00,VWS V14.00,2013-03-23 05:11:00,
2013-03-23 00:13:00,30.6,24.6,30.12,NE,45,2.0,5.0,78,0.00,,OVC100,0.00,0.00,VWS V14.00,2013-03-23 05:13:00,
2013-03-23 00:14:00,30.7,24.7,30.12,NE,44,4.0,5.0,78,0.00,,OVC100,0.00,0.00,VWS V14.00,2013-03-23 05:14:00,
2013-03-23 00:15:00,30.6,24.6,30.12,NE,45,5.0,5.0,78,0.00,,BKN100,0.00,0.00,VWS V14.00,2013-03-23 05:15:00,
2013-03-23 00:17:00,30.7,24.7,30.12,NE,44,1.0,5.0,78,0.00,,OVC100,0.00,0.00,VWS V14.00,2013-03-23 05:17:00,
2013-03-23 00:19:00,30.7,25.0,30.12,NE,38,0.0,5.0,79,0.00,,OVC100,0.00,0.00,VWS V14.00,2013-03-23 05:19:00,
2013-03-23 00:20:00,30.6,24.9,30.12,NE,38,3.0,5.0,79,0.00,,BKN100,0.00,0.00,VWS V14.00,2013-03-23 05:20:00,
2013-03-23 00:22:00,30.7,25.0,30.12,NE,38,0.0,3.0,79,0.00,,OVC100,0.00,0.00,VWS V14.00,2013-03-23 05:22:00,
2013-03-23 00:24:00,30.6,24.9,30.12,NE,47,3.0,4.0,79,0.00,,OVC100,0.00,0.00,VWS V14.00,2013-03-23 05:24:00,
2013-03-23 00:25:00,30.6,24.9,30.12,NE,47,3.0,4.0,79,0.00,,BKN100,0.00,0.00,VWS V14.00,2013-03-23 05:25:00,
2013-03-23 00:27:00,30.6,24.6,30.12,NE,52,3.0,5.0,78,0.00,,OVC100,0.00,0.00,VWS V14.00,2013-03-23 05:27:00,
2013-03-23 00:29:00,30.6,24.9,30.12,NE,55,1.0,4.0,79,0.00,,OVC100,0.00,0.00,VWS V14.00,2013-03-23 05:29:00,
2013-03-23 00:30:00,30.6,24.9,30.12,NE,51,3.0,5.0,79,0.00,,BKN100,0.00,0.00,VWS V14.00,2013-03-23 05:30:00,
2013-03-23 00:32:00,30.6,24.9,30.11,NNE,32,1.0,5.0,79,0.00,,OVC100,0.00,0.00,VWS V14.00,2013-03-23 05:32:00,
2013-03-23 00:34:00,30.6,24.9,30.11,NE,46,1.0,4.0,79,0.00,,OVC100,0.00,0.00,VWS V14.00,2013-03-23 05:34:00,
2013-03-23 00:35:00,30.6,24.9,30.11,NE,46,4.0,5.0,79,0.00,,BKN100,0.00,0.00,VWS V14.00,2013-03-23 05:35:00,
2013-03-23 00:37:00,30.5,24.8,30.11,NE,51,0.0,6.0,79,0.00,,OVC100,0.00,0.00,VWS V14.00,2013-03-23 05:37:00,
2013-03-23 00:39:00,30.5,24.8,30.11,NE,51,3.0,3.0,79,0.00,,OVC100,0.00,0.00,VWS V14.00,2013-03-23 05:39:00,
2013-03-23 00:40:00,30.5,24.8,30.11,ENE,65,3.0,3.0,79,0.00,,OVC100,0.00,0.00,VWS V14.00,2013-03-23 05:40:00,
2013-03-23 00:42:00,30.4,25.0,30.11,NNE,33,0.0,5.0,80,0.00,,BKN100,0.00,0.00,VWS V14.00,2013-03-23 05:42:00,
2013-03-23 00:44:00,30.3,24.9,30.11,NE,34,1.0,2.0,80,0.00,,BKN100,0.00,0.00,VWS V14.00,2013-03-23 05:44:00,
2013-03-23 00:45:00,30.3,24.9,30.11,NE,34,1.0,2.0,80,0.00,,BKN100,0.00,0.00,VWS V14.00,2013-03-23 05:45:00,
2013-03-23 00:47:00,30.3,24.9,30.11,NE,56,0.0,3.0,80,0.00,,BKN100,0.00,0.00,VWS V14.00,2013-03-23 05:47:00,
2013-03-23 00:49:00,30.2,24.8,30.11,NE,56,0.0,1.0,80,0.00,,BKN100,0.00,0.00,VWS V14.00,2013-03-23 05:49:00,
2013-03-23 00:50:00,30.2,24.8,30.11,NE,56,0.0,1.0,80,0.00,,BKN100,0.00,0.00,VWS V14.00,2013-03-23 05:50:00,
2013-03-23 00:52:00,30.1,25.0,30.11,ENE,57,0.0,1.0,81,0.00,,BKN100,0.00,0.00,VWS V14.00,2013-03-23 05:52:00,
2013-03-23 00:55:00,30.1,25.0,30.11,East,80,4.0,4.0,81,0.00,,BKN100,0.00,0.00,VWS V14.00,2013-03-23 05:55:00,
2013-03-23 00:58:00,30.0,24.9,30.11,ENE,63,2.0,5.0,81,0.00,,BKN100,0.00,0.00,VWS V14.00,2013-03-23 05:58:00,
2013-03-23 01:00:00,30.0,25.2,30.11,East,93,2.0,5.0,82,0.00,,BKN100,0.00,0.00,VWS V14.00,2013-03-23 06:00:00,
2013-03-23 01:01:00,30.0,25.2,30.11,East,86,1.0,5.0,82,0.00,,BKN065,0.00,0.00,VWS V14.00,2013-03-23 06:01:00,
2013-03-23 01:03:00,29.9,25.1,30.11,East,96,4.0,5.0,82,0.00,,BKN065,0.00,0.00,VWS V14.00,2013-03-23 06:03:00,
2013-03-23 01:05:00,29.8,25.0,30.11,ENE,76,1.0,5.0,82,0.00,,BKN065,0.00,0.00,VWS V14.00,2013-03-23 06:05:00,
2013-03-23 01:06:00,29.8,25.0,30.11,East,83,3.0,5.0,82,0.00,,BKN065,0.00,0.00,VWS V14.00,2013-03-23 06:06:00,
2013-03-23 01:09:00,29.7,24.9,30.10,ENE,69,2.0,5.0,82,0.00,,BKN065,0.00,0.00,VWS V14.00,2013-03-23 06:09:00,
2013-03-23 01:10:00,29.7,25.2,30.11,East,80,5.0,5.0,83,0.00,,BKN065,0.00,0.00,VWS V14.00,2013-03-23 06:10:00,
2013-03-23 01:12:00,29.6,25.1,30.11,ENE,62,2.0,5.0,83,0.00,,BKN065,0.00,0.00,VWS V14.00,2013-03-23 06:12:00,
2013-03-23 01:14:00,29.5,25.0,30.11,East,82,1.0,5.0,83,0.00,,BKN065,0.00,0.00,VWS V14.00,2013-03-23 06:14:00,
2013-03-23 01:15:00,29.4,24.9,30.11,East,80,4.0,6.0,83,0.00,,BKN065,0.00,0.00,VWS V14.00,2013-03-23 06:15:00,
2013-03-23 01:17:00,29.4,24.9,30.11,East,83,3.0,6.0,83,0.00,,BKN065,0.00,0.00,VWS V14.00,2013-03-23 06:17:00,
2013-03-23 01:19:00,29.3,24.8,30.10,ENE,66,1.0,2.0,83,0.00,,BKN065,0.00,0.00,VWS V14.00,2013-03-23 06:19:00,
2013-03-23 01:20:00,29.3,25.1,30.10,ENE,66,0.0,2.0,84,0.00,,OVC065,0.00,0.00,VWS V14.00,2013-03-23 06:20:00,
2013-03-23 01:22:00,29.2,25.0,30.10,NE,43,1.0,4.0,84,0.00,,OVC065,0.00,0.00,VWS V14.00,2013-03-23 06:22:00,
2013-03-23 01:24:00,29.1,24.9,30.10,East,88,2.0,2.0,84,0.00,,OVC065,0.00,0.00,VWS V14.00,2013-03-23 06:24:00,
2013-03-23 01:25:00,29.0,24.8,30.10,East,82,2.0,3.0,84,0.00,,OVC065,0.00,0.00,VWS V14.00,2013-03-23 06:25:00,
2013-03-23 01:27:00,29.0,24.8,30.10,East,82,0.0,3.0,84,0.00,,OVC065,0.00,0.00,VWS V14.00,2013-03-23 06:27:00,
2013-03-23 01:29:00,28.9,24.7,30.10,East,91,2.0,2.0,84,0.00,,OVC065,0.00,0.00,VWS V14.00,2013-03-23 06:29:00,
2013-03-23 01:30:00,28.9,25.0,30.10,East,80,1.0,4.0,85,0.00,,OVC065,0.00,0.00,VWS V14.00,2013-03-23 06:30:00,
2013-03-23 01:31:00,28.9,25.0,30.10,East,80,2.0,4.0,85,0.00,,OVC065,0.00,0.00,VWS V14.00,2013-03-23 06:31:00,
2013-03-23 01:32:00,28.8,24.9,30.10,East,87,2.0,5.0,85,0.00,,OVC065,0.00,0.00,VWS V14.00,2013-03-23 06:32:00,
2013-03-23 01:34:00,28.7,24.8,30.10,ENE,78,2.0,5.0,85,0.00,,OVC065,0.00,0.00,VWS V14.00,2013-03-23 06:34:00,
2013-03-23 01:35:00,28.7,24.8,30.09,East,91,2.0,5.0,85,0.00,,OVC065,0.00,0.00,VWS V14.00,2013-03-23 06:35:00,
2013-03-23 01:36:00,28.7,24.8,30.09,East,89,2.0,5.0,85,0.00,,OVC065,0.00,0.00,VWS V14.00,2013-03-23 06:36:00,
2013-03-23 01:38:00,28.7,24.8,30.09,ENE,74,2.0,5.0,85,0.00,,OVC065,0.00,0.00,VWS V14.00,2013-03-23 06:38:00,
2013-03-23 01:39:00,28.6,24.7,30.09,NE,44,0.0,1.0,85,0.00,,OVC065,0.00,0.00,VWS V14.00,2013-03-23 06:39:00,
2013-03-23 01:40:00,28.6,24.7,30.09,NE,44,0.0,5.0,85,0.00,,BKN100,0.00,0.00,VWS V14.00,2013-03-23 06:40:00,
2013-03-23 01:41:00,28.5,24.6,30.09,ENE,75,0.0,4.0,85,0.00,,SCT065,0.00,0.00,VWS V14.00,2013-03-23 06:41:00,
2013-03-23 01:43:00,28.5,24.6,30.09,NE,54,2.0,4.0,85,0.00,,SCT065,0.00,0.00,VWS V14.00,2013-03-23 06:43:00,
2013-03-23 01:45:00,28.5,24.6,30.10,NE,54,0.0,1.0,85,0.00,,SCT065,0.00,0.00,VWS V14.00,2013-03-23 06:45:00,
2013-03-23 01:46:00,28.4,24.5,30.10,NE,54,0.0,3.0,85,0.00,,SCT065,0.00,0.00,VWS V14.00,2013-03-23 06:46:00,
2013-03-23 01:47:00,28.4,24.5,30.10,NE,54,3.0,3.0,85,0.00,,SCT065,0.00,0.00,VWS V14.00,2013-03-23 06:47:00,
2013-03-23 01:48:00,28.4,24.5,30.10,NE,54,1.0,3.0,85,0.00,,SCT065,0.00,0.00,VWS V14.00,2013-03-23 06:48:00,
2013-03-23 01:50:00,28.3,24.4,30.10,NE,54,0.0,1.0,85,0.00,,SCT065,0.00,0.00,VWS V14.00,2013-03-23 06:50:00,
2013-03-23 01:52:00,28.3,24.7,30.10,NE,54,0.0,1.0,86,0.00,,SCT065,0.00,0.00,VWS V14.00,2013-03-23 06:52:00,
2013-03-23 01:53:00,28.3,24.4,30.10,NE,54,0.0,1.0,85,0.00,,SCT065,0.00,0.00,VWS V14.00,2013-03-23 06:53:00,
2013-03-23 01:55:00,28.2,24.3,30.10,NE,55,1.0,1.0,85,0.00,,SCT065,0.00,0.00,VWS V14.00,2013-03-23 06:55:00,
2013-03-23 01:57:00,28.1,24.5,30.10,NE,54,1.0,1.0,86,0.00,,SCT065,0.00,0.00,VWS V14.00,2013-03-23 06:57:00,
2013-03-23 01:58:00,28.1,24.5,30.10,NE,54,0.0,1.0,86,0.00,,SCT065,0.00,0.00,VWS V14.00,2013-03-23 06:58:00,
2013-03-23 02:00:00,28.0,26.0,30.10,NE,55,1.0,1.0,92,0.00,,BKN100,0.00,0.00,VWS V14.00,2013-03-23 07:00:00,
2013-03-23 02:01:00,27.9,24.3,30.10,NE,54,0.0,1.0,86,0.00,,CLR,0.00,0.00,VWS V14.00,2013-03-23 07:01:00,
2013-03-23 02:02:00,27.9,24.3,30.11,NE,54,0.0,1.0,86,0.00,,CLR,0.00,0.00,VWS V14.00,2013-03-23 07:02:00,
2013-03-23 02:03:00,27.9,24.3,30.10,NE,54,0.0,1.0,86,0.00,,CLR,0.00,0.00,VWS V14.00,2013-03-23 07:03:00,
2013-03-23 02:05:00,27.8,24.2,30.11,NE,54,0.0,1.0,86,0.00,,BKN100,0.00,0.00,VWS V14.00,2013-03-23 07:05:00,
2013-03-23 02:07:00,27.8,24.2,30.11,NE,54,0.0,1.0,86,0.00,,CLR,0.00,0.00,VWS V14.00,2013-03-23 07:07:00,
2013-03-23 02:08:00,27.7,24.1,30.11,NE,54,0.0,1.0,86,0.00,,CLR,0.00,0.00,VWS V14.00,2013-03-23 07:08:00,
2013-03-23 02:10:00,27.6,24.0,30.11,NE,54,0.0,1.0,86,0.00,,BKN100,0.00,0.00,VWS V14.00,2013-03-23 07:10:00,
2013-03-23 02:12:00,27.5,23.9,30.11,NE,54,0.0,0.0,86,0.00,,CLR,0.00,0.00,VWS V14.00,2013-03-23 07:12:00,
2013-03-23 02:13:00,27.5,23.9,30.11,NE,54,0.0,0.0,86,0.00,,CLR,0.00,0.00,VWS V14.00,2013-03-23 07:13:00,
2013-03-23 02:15:00,27.5,23.9,30.11,NE,54,0.0,0.0,86,0.00,,BKN100,0.00,0.00,VWS V14.00,2013-03-23 07:15:00,
2013-03-23 02:17:00,27.3,23.7,30.11,NE,54,0.0,1.0,86,0.00,,CLR,0.00,0.00,VWS V14.00,2013-03-23 07:17:00,
2013-03-23 02:18:00,27.3,23.7,30.11,NE,54,0.0,1.0,86,0.00,,CLR,0.00,0.00,VWS V14.00,2013-03-23 07:18:00,
2013-03-23 02:19:00,27.3,23.7,30.11,NE,54,0.0,1.0,86,0.00,,CLR,0.00,0.00,VWS V14.00,2013-03-23 07:19:00,
2013-03-23 02:20:00,27.3,23.7,30.11,NE,54,0.0,1.0,86,0.00,,BKN100,0.00,0.00,VWS V14.00,2013-03-23 07:20:00,
2013-03-23 02:22:00,27.2,23.9,30.11,NE,54,0.0,2.0,87,0.00,,CLR,0.00,0.00,VWS V14.00,2013-03-23 07:22:00,
2013-03-23 02:23:00,27.2,23.9,30.11,NE,54,1.0,2.0,87,0.00,,CLR,0.00,0.00,VWS V14.00,2013-03-23 07:23:00,
2013-03-23 02:24:00,27.2,23.9,30.11,NE,54,0.0,2.0,87,0.00,,CLR,0.00,0.00,VWS V14.00,2013-03-23 07:24:00,
2013-03-23 02:25:00,27.2,23.9,30.11,NE,54,0.0,2.0,87,0.00,,BKN100,0.00,0.00,VWS V14.00,2013-03-23 07:25:00,
2013-03-23 02:28:00,27.2,23.9,30.11,NE,54,0.0,2.0,87,0.00,,CLR,0.00,0.00,VWS V14.00,2013-03-23 07:28:00,
2013-03-23 02:29:00,27.2,23.9,30.10,NE,54,0.0,2.0,87,0.00,,CLR,0.00,0.00,VWS V14.00,2013-03-23 07:29:00,
2013-03-23 02:30:00,27.2,23.9,30.10,NE,54,0.0,2.0,87,0.00,,BKN100,0.00,0.00,VWS V14.00,2013-03-23 07:30:00,
2013-03-23 02:33:00,27.2,23.9,30.11,NE,54,0.0,0.0,87,0.00,,CLR,0.00,0.00,VWS V14.00,2013-03-23 07:33:00,
2013-03-23 02:34:00,27.2,23.9,30.11,NE,54,0.0,0.0,87,0.00,,CLR,0.00,0.00,VWS V14.00,2013-03-23 07:34:00,
2013-03-23 02:35:00,27.2,23.9,30.11,NE,54,0.0,0.0,87,0.00,,BKN100,0.00,0.00,VWS V14.00,2013-03-23 07:35:00,
2013-03-23 02:38:00,27.0,23.6,30.11,NE,54,0.0,0.0,87,0.00,,CLR,0.00,0.00,VWS V14.00,2013-03-23 07:38:00,
2013-03-23 02:39:00,27.0,23.6,30.11,NE,54,0.0,0.0,87,0.00,,CLR,0.00,0.00,VWS V14.00,2013-03-23 07:39:00,
2013-03-23 02:40:00,27.0,23.6,30.11,NE,54,0.0,0.0,87,0.00,,CLR,0.00,0.00,VWS V14.00,2013-03-23 07:40:00,
2013-03-23 02:43:00,26.9,23.6,30.11,NE,54,0.0,0.0,87,0.00,,CLR,0.00,0.00,VWS V14.00,2013-03-23 07:43:00,
2013-03-23 02:44:00,26.9,23.6,30.11,NE,54,0.0,0.0,87,0.00,,CLR,0.00,0.00,VWS V14.00,2013-03-23 07:44:00,
2013-03-23 02:45:00,26.8,23.5,30.11,NE,54,0.0,0.0,87,0.00,,CLR,0.00,0.00,VWS V14.00,2013-03-23 07:45:00,
2013-03-23 02:48:00,26.7,23.6,30.11,NE,54,0.0,0.0,88,0.00,,CLR,0.00,0.00,VWS V14.00,2013-03-23 07:48:00,
2013-03-23 02:49:00,26.7,23.4,30.11,NE,54,0.0,0.0,87,0.00,,CLR,0.00,0.00,VWS V14.00,2013-03-23 07:49:00,
2013-03-23 02:50:00,26.6,23.5,30.11,NE,54,0.0,0.0,88,0.00,,CLR,0.00,0.00,VWS V14.00,2013-03-23 07:50:00,
2013-03-23 02:53:00,26.5,23.4,30.12,NE,54,0.0,0.0,88,0.00,,CLR,0.00,0.00,VWS V14.00,2013-03-23 07:53:00,
2013-03-23 02:54:00,26.5,23.4,30.12,NE,54,0.0,0.0,88,0.00,,CLR,0.00,0.00,VWS V14.00,2013-03-23 07:54:00,
2013-03-23 02:55:00,26.4,23.3,30.12,NE,54,0.0,0.0,88,0.00,,CLR,0.00,0.00,VWS V14.00,2013-03-23 07:55:00,
2013-03-23 02:58:00,26.4,23.6,30.13,NE,54,1.0,1.0,89,0.00,,CLR,0.00,0.00,VWS V14.00,2013-03-23 07:58:00,
2013-03-23 02:59:00,26.5,23.7,30.13,NE,55,0.0,0.0,89,0.00,,CLR,0.00,0.00,VWS V14.00,2013-03-23 07:59:00,
2013-03-23 03:00:00,26.5,23.7,30.13,NE,54,0.0,0.0,89,0.00,,SCT065,0.00,0.00,VWS V14.00,2013-03-23 08:00:00,
2013-03-23 03:03:00,26.6,23.8,30.13,NE,54,0.0,0.0,89,0.00,,SCT065,0.00,0.00,VWS V14.00,2013-03-23 08:03:00,
2013-03-23 03:04:00,26.6,23.8,30.13,NE,54,0.0,0.0,89,0.00,,SCT065,0.00,0.00,VWS V14.00,2013-03-23 08:04:00,
2013-03-23 03:05:00,26.6,23.8,30.13,NE,54,0.0,0.0,89,0.00,,BKN100,0.00,0.00,VWS V14.00,2013-03-23 08:05:00,
2013-03-23 03:06:00,26.6,23.8,30.14,NE,54,0.0,0.0,89,0.00,,SCT065,0.00,0.00,VWS V14.00,2013-03-23 08:06:00,
2013-03-23 03:09:00,26.7,23.9,30.14,NE,54,0.0,0.0,89,0.00,,SCT065,0.00,0.00,VWS V14.00,2013-03-23 08:09:00,
2013-03-23 03:10:00,26.7,23.9,30.14,NE,54,0.0,0.0,89,0.00,,SCT065,0.00,0.00,VWS V14.00,2013-03-23 08:10:00,
2013-03-23 03:11:00,26.7,23.9,30.14,NE,54,0.0,1.0,89,0.00,,SCT065,0.00,0.00,VWS V14.00,2013-03-23 08:11:00,
2013-03-23 03:14:00,26.7,23.9,30.14,NE,53,1.0,1.0,89,0.00,,SCT065,0.00,0.00,VWS V14.00,2013-03-23 08:14:00,
2013-03-23 03:15:00,26.7,23.9,30.14,NE,54,0.0,1.0,89,0.00,,SCT065,0.00,0.00,VWS V14.00,2013-03-23 08:15:00,
2013-03-23 03:17:00,26.8,24.3,30.14,NE,54,1.0,1.0,90,0.00,,SCT065,0.00,0.00,VWS V14.00,2013-03-23 08:17:00,
2013-03-23 03:19:00,26.9,24.4,30.15,NE,54,1.0,2.0,90,0.00,,SCT065,0.00,0.00,VWS V14.00,2013-03-23 08:19:00,
2013-03-23 03:20:00,26.9,24.4,30.15,NE,54,0.0,1.0,90,0.00,,BKN065,0.00,0.00,VWS V14.00,2013-03-23 08:20:00,
2013-03-23 03:22:00,27.0,24.5,30.15,NE,54,1.0,2.0,90,0.00,,BKN065,0.00,0.00,VWS V14.00,2013-03-23 08:22:00,
2013-03-23 03:24:00,27.1,24.6,30.15,NE,54,1.0,1.0,90,0.00,,BKN065,0.00,0.00,VWS V14.00,2013-03-23 08:24:00,
2013-03-23 03:25:00,27.1,24.6,30.15,NE,53,0.0,2.0,90,0.00,,BKN065,0.00,0.00,VWS V14.00,2013-03-23 08:25:00,
2013-03-23 03:27:00,27.2,24.7,30.15,NNW,348,1.0,3.0,90,0.00,,BKN065,0.00,0.00,VWS V14.00,2013-03-23 08:27:00,
2013-03-23 03:29:00,27.3,24.5,30.15,NNW,348,0.0,3.0,89,0.00,,BKN065,0.00,0.00,VWS V14.00,2013-03-23 08:29:00,
2013-03-23 03:30:00,27.3,24.5,30.15,NNW,348,1.0,3.0,89,0.00,,BKN065,0.00,0.00,VWS V14.00,2013-03-23 08:30:00,
2013-03-23 03:32:00,27.4,24.6,30.15,NNW,348,0.0,3.0,89,0.00,,BKN065,0.00,0.00,VWS V14.00,2013-03-23 08:32:00,
2013-03-23 03:34:00,27.5,24.7,30.16,NNW,348,1.0,2.0,89,0.00,,BKN065,0.00,0.00,VWS V14.00,2013-03-23 08:34:00,
2013-03-23 03:35:00,27.5,24.7,30.16,NNW,333,2.0,4.0,89,0.00,,BKN065,0.00,0.00,VWS V14.00,2013-03-23 08:35:00,
2013-03-23 03:38:00,27.6,24.8,30.15,NNW,333,2.0,4.0,89,0.00,,BKN065,0.00,0.00,VWS V14.00,2013-03-23 08:38:00,
2013-03-23 03:39:00,27.6,24.8,30.16,NNW,333,3.0,3.0,89,0.00,,BKN065,0.00,0.00,VWS V14.00,2013-03-23 08:39:00,
2013-03-23 03:40:00,27.7,24.9,30.16,NNW,333,2.0,5.0,89,0.00,,OVC055,0.00,0.00,VWS V14.00,2013-03-23 08:40:00,
2013-03-23 03:43:00,27.8,25.0,30.15,NW,324,4.0,5.0,89,0.00,,OVC055,0.00,0.00,VWS V14.00,2013-03-23 08:43:00,
2013-03-23 03:44:00,27.8,25.0,30.15,NNW,333,3.0,3.0,89,0.00,,OVC055,0.00,0.00,VWS V14.00,2013-03-23 08:44:00,
2013-03-23 03:45:00,27.8,24.7,30.15,NNW,329,3.0,4.0,88,0.00,,OVC055,0.00,0.00,VWS V14.00,2013-03-23 08:45:00,
2013-03-23 03:46:00,27.9,24.8,30.15,NNW,329,1.0,4.0,88,0.00,,OVC055,0.00,0.00,VWS V14.00,2013-03-23 08:46:00,
2013-03-23 03:48:00,27.9,24.8,30.15,NNW,329,3.0,5.0,88,0.00,,OVC055,0.00,0.00,VWS V14.00,2013-03-23 08:48:00,
2013-03-23 03:49:00,28.0,24.9,30.15,NNW,329,2.0,2.0,88,0.00,,OVC055,0.00,0.00,VWS V14.00,2013-03-23 08:49:00,
2013-03-23 03:50:00,27.9,24.8,30.15,NNW,329,2.0,2.0,88,0.00,,OVC055,0.00,0.00,VWS V14.00,2013-03-23 08:50:00,
2013-03-23 03:52:00,28.0,24.9,30.15,NNW,329,2.0,5.0,88,0.00,,OVC055,0.00,0.00,VWS V14.00,2013-03-23 08:52:00,
2013-03-23 03:54:00,28.0,24.9,30.15,NNW,329,3.0,5.0,88,0.00,,OVC055,0.00,0.00,VWS V14.00,2013-03-23 08:54:00,
2013-03-23 03:55:00,28.0,24.9,30.15,NNW,329,2.0,5.0,88,0.00,,BKN100,0.00,0.00,VWS V14.00,2013-03-23 08:55:00,
2013-03-23 03:56:00,28.0,24.9,30.15,North,355,2.0,4.0,88,0.00,,OVC055,0.00,0.00,VWS V14.00,2013-03-23 08:56:00,
2013-03-23 03:57:00,28.0,24.9,30.15,North,355,1.0,4.0,88,0.00,,OVC055,0.00,0.00,VWS V14.00,2013-03-23 08:57:00,
2013-03-23 03:59:00,28.1,25.0,30.14,North,5,4.0,5.0,88,0.00,,OVC055,0.00,0.00,VWS V14.00,2013-03-23 08:59:00,
2013-03-23 04:00:00,28.1,25.0,30.14,North,5,4.0,5.0,88,0.00,,BKN100,0.00,0.00,VWS V14.00,2013-03-23 09:00:00,
2013-03-23 04:01:00,28.1,25.0,30.14,North,11,5.0,5.0,88,0.00,,OVC050,0.00,0.00,VWS V14.00,2013-03-23 09:01:00,
2013-03-23 04:02:00,28.1,25.0,30.15,North,360,3.0,5.0,88,0.00,,OVC050,0.00,0.00,VWS V14.00,2013-03-23 09:02:00,
2013-03-23 04:04:00,28.1,25.0,30.14,North,5,6.0,6.0,88,0.00,,OVC050,0.00,0.00,VWS V14.00,2013-03-23 09:04:00,
2013-03-23 04:05:00,28.1,25.0,30.14,North,350,6.0,6.0,88,0.00,,BKN100,0.00,0.00,VWS V14.00,2013-03-23 09:05:00,
2013-03-23 04:06:00,28.2,25.1,30.14,North,360,2.0,6.0,88,0.00,,OVC050,0.00,0.00,VWS V14.00,2013-03-23 09:06:00,
2013-03-23 04:08:00,28.2,25.1,30.14,North,9,4.0,6.0,88,0.00,,OVC050,0.00,0.00,VWS V14.00,2013-03-23 09:08:00,
2013-03-23 04:09:00,28.3,25.2,30.14,North,5,2.0,2.0,88,0.00,,OVC050,0.00,0.00,VWS V14.00,2013-03-23 09:09:00,
2013-03-23 04:10:00,28.3,25.2,30.14,North,9,1.0,6.0,88,0.00,,BKN100,0.00,0.00,VWS V14.00,2013-03-23 09:10:00,
2013-03-23 04:11:00,28.3,25.2,30.14,North,360,0.0,4.0,88,0.00,,OVC050,0.00,0.00,VWS V14.00,2013-03-23 09:11:00,
2013-03-23 04:13:00,28.3,25.2,30.14,NNE,12,3.0,5.0,88,0.00,,OVC050,0.00,0.00,VWS V14.00,2013-03-23 09:13:00,
2013-03-23 04:14:00,28.3,25.2,30.14,NNE,31,3.0,4.0,88,0.00,,OVC050,0.00,0.00,VWS V14.00,2013-03-23 09:14:00,
2013-03-23 04:15:00,28.3,25.2,30.14,North,355,4.0,5.0,88,0.00,,OVC050,0.00,0.00,VWS V14.00,2013-03-23 09:15:00,
2013-03-23 04:17:00,28.4,25.0,30.13,NNE,21,5.0,5.0,87,0.00,,OVC050,0.00,0.00,VWS V14.00,2013-03-23 09:17:00,
2013-03-23 04:18:00,28.4,25.0,30.13,NNE,17,2.0,5.0,87,0.00,,OVC050,0.00,0.00,VWS V14.00,2013-03-23 09:18:00,
2013-03-23 04:19:00,28.4,25.0,30.13,NE,41,6.0,6.0,87,0.00,,OVC050,0.00,0.00,VWS V14.00,2013-03-23 09:19:00,
2013-03-23 04:20:00,28.4,25.0,30.13,NE,38,3.0,6.0,87,0.00,,OVC065,0.00,0.00,VWS V14.00,2013-03-23 09:20:00,
2013-03-23 04:22:00,28.4,25.3,30.12,NE,39,1.0,6.0,88,0.00,,OVC065,0.00,0.00,VWS V14.00,2013-03-23 09:22:00,
2013-03-23 04:23:00,28.4,25.3,30.12,NNE,21,2.0,6.0,88,0.00,,OVC065,0.00,0.00,VWS V14.00,2013-03-23 09:23:00,
2013-03-23 04:25:00,28.4,25.3,30.12,North,5,6.0,6.0,88,0.00,,OVC065,0.00,0.00,VWS V14.00,2013-03-23 09:25:00,
2013-03-23 04:27:00,28.4,25.0,30.12,North,5,3.0,6.0,87,0.00,,OVC065,0.00,0.00,VWS V14.00,2013-03-23 09:27:00,
2013-03-23 04:28:00,28.4,25.3,30.12,NNE,13,8.0,8.0,88,0.00,,OVC065,0.00,0.00,VWS V14.00,2013-03-23 09:28:00,
2013-03-23 04:30:00,28.4,25.0,30.12,North,355,1.0,4.0,87,0.00,,OVC065,0.00,0.00,VWS V14.00,2013-03-23 09:30:00,
2013-03-23 04:31:00,28.4,25.0,30.12,North,360,2.0,4.0,87,0.00,,OVC065,0.00,0.00,VWS V14.00,2013-03-23 09:31:00,
2013-03-23 04:32:00,28.4,25.0,30.12,NE,53,1.0,5.0,87,0.00,,OVC065,0.00,0.00,VWS V14.00,2013-03-23 09:32:00,
2013-03-23 04:34:00,28.4,25.0,30.11,NE,53,3.0,3.0,87,0.00,,OVC065,0.00,0.00,VWS V14.00,2013-03-23 09:34:00,
2013-03-23 04:35:00,28.4,25.0,30.11,NE,50,1.0,4.0,87,0.00,,OVC065,0.00,0.00,VWS V14.00,2013-03-23 09:35:00,
2013-03-23 04:36:00,28.3,24.9,30.11,NE,51,1.0,4.0,87,0.00,,OVC065,0.00,0.00,VWS V14.00,2013-03-23 09:36:00,
2013-03-23 04:38:00,28.3,24.9,30.11,NNE,22,2.0,4.0,87,0.00,,OVC065,0.00,0.00,VWS V14.00,2013-03-23 09:38:00,
2013-03-23 04:39:00,28.3,24.9,30.11,NNE,22,0.0,0.0,87,0.00,,OVC065,0.00,0.00,VWS V14.00,2013-03-23 09:39:00,
2013-03-23 04:40:00,28.2,24.8,30.11,NNE,22,0.0,0.0,87,0.00,,OVC065,0.00,0.00,VWS V14.00,2013-03-23 09:40:00,
2013-03-23 04:41:00,28.2,24.8,30.11,NNE,20,0.0,3.0,87,0.00,,OVC065,0.00,0.00,VWS V14.00,2013-03-23 09:41:00,
2013-03-23 04:43:00,28.2,24.8,30.11,NE,46,4.0,4.0,87,0.00,,OVC065,0.00,0.00,VWS V14.00,2013-03-23 09:43:00,
2013-03-23 04:45:00,28.1,24.7,30.11,NE,53,4.0,4.0,87,0.00,,OVC065,0.00,0.00,VWS V14.00,2013-03-23 09:45:00,
2013-03-23 04:46:00,28.1,24.7,30.11,NE,44,2.0,4.0,87,0.00,,OVC065,0.00,0.00,VWS V14.00,2013-03-23 09:46:00,
2013-03-23 04:48:00,28.0,24.6,30.10,NE,47,4.0,5.0,87,0.00,,OVC065,0.00,0.00,VWS V14.00,2013-03-23 09:48:00,
2013-03-23 04:50:00,28.0,24.6,30.10,NE,52,2.0,5.0,87,0.00,,OVC065,0.00,0.00,VWS V14.00,2013-03-23 09:50:00,
2013-03-23 04:51:00,28.0,24.6,30.10,NE,52,2.0,5.0,87,0.00,,OVC065,0.00,0.00,VWS V14.00,2013-03-23 09:51:00,
2013-03-23 04:53:00,28.0,24.6,30.10,NE,54,1.0,6.0,87,0.00,,OVC065,0.00,0.00,VWS V14.00,2013-03-23 09:53:00,
2013-03-23 04:55:00,28.0,24.6,30.10,North,5,1.0,4.0,87,0.00,,OVC065,0.00,0.00,VWS V14.00,2013-03-23 09:55:00,
2013-03-23 04:57:00,28.0,24.6,30.10,NNE,33,2.0,6.0,87,0.00,,OVC065,0.00,0.00,VWS V14.00,2013-03-23 09:57:00,
2013-03-23 04:58:00,27.9,24.5,30.11,NNE,31,2.0,6.0,87,0.00,,OVC065,0.00,0.00,VWS V14.00,2013-03-23 09:58:00,
2013-03-23 05:00:00,27.9,24.5,30.11,NE,38,3.0,5.0,87,0.00,,OVC065,0.00,0.00,VWS V14.00,2013-03-23 10:00:00,
2013-03-23 05:02:00,27.9,24.8,30.11,NNE,17,3.0,5.0,88,0.00,,BKN065,0.00,0.00,VWS V14.00,2013-03-23 10:02:00,
2013-03-23 05:03:00,27.8,24.4,30.10,NNE,33,3.0,5.0,87,0.00,,BKN065,0.00,0.00,VWS V14.00,2013-03-23 10:03:00,
2013-03-23 05:05:00,27.8,24.4,30.10,NNE,32,4.0,4.0,87,0.00,,BKN065,0.00,0.00,VWS V14.00,2013-03-23 10:05:00,
2013-03-23 05:07:00,27.8,24.4,30.10,NNE,19,2.0,5.0,87,0.00,,BKN065,0.00,0.00,VWS V14.00,2013-03-23 10:07:00,
2013-03-23 05:08:00,27.8,24.4,30.10,NNE,24,1.0,5.0,87,0.00,,BKN065,0.00,0.00,VWS V14.00,2013-03-23 10:08:00,
2013-03-23 05:10:00,27.8,24.4,30.10,NE,52,2.0,6.0,87,0.00,,BKN065,0.00,0.00,VWS V14.00,2013-03-23 10:10:00,
2013-03-23 05:11:00,27.7,24.3,30.10,NE,52,2.0,6.0,87,0.00,,BKN065,0.00,0.00,VWS V14.00,2013-03-23 10:11:00,
2013-03-23 05:12:00,27.7,24.3,30.10,NE,42,4.0,6.0,87,0.00,,BKN065,0.00,0.00,VWS V14.00,2013-03-23 10:12:00,
2013-03-23 05:13:00,27.7,24.3,30.10,NE,41,4.0,6.0,87,0.00,,BKN065,0.00,0.00,VWS V14.00,2013-03-23 10:13:00,
2013-03-23 05:15:00,27.7,24.3,30.10,NE,47,4.0,6.0,87,0.00,,BKN100,0.00,0.00,VWS V14.00,2013-03-23 10:15:00,
2013-03-23 05:16:00,27.7,24.3,30.10,NE,51,1.0,6.0,87,0.00,,BKN065,0.00,0.00,VWS V14.00,2013-03-23 10:16:00,
2013-03-23 05:17:00,27.6,24.2,30.10,NE,53,3.0,6.0,87,0.00,,BKN065,0.00,0.00,VWS V14.00,2013-03-23 10:17:00,
2013-03-23 05:18:00,27.6,24.2,30.10,NE,53,0.0,6.0,87,0.00,,BKN065,0.00,0.00,VWS V14.00,2013-03-23 10:18:00,
2013-03-23 05:20:00,27.6,24.2,30.10,NE,38,2.0,6.0,87,0.00,,BKN100,0.00,0.00,VWS V14.00,2013-03-23 10:20:00,
2013-03-23 05:21:00,27.6,24.2,30.11,NE,50,3.0,7.0,87,0.00,,SCT065,0.00,0.00,VWS V14.00,2013-03-23 10:21:00,
2013-03-23 05:22:00,27.6,24.2,30.11,NE,51,0.0,7.0,87,0.00,,SCT065,0.00,0.00,VWS V14.00,2013-03-23 10:22:00,
2013-03-23 05:23:00,27.6,24.2,30.11,NE,51,0.0,7.0,87,0.00,,SCT065,0.00,0.00,VWS V14.00,2013-03-23 10:23:00,
2013-03-23 05:25:00,27.6,24.2,30.11,NE,51,2.0,7.0,87,0.00,,BKN100,0.00,0.00,VWS V14.00,2013-03-23 10:25:00,
2013-03-23 05:26:00,27.5,24.1,30.11,NE,52,2.0,2.0,87,0.00,,SCT065,0.00,0.00,VWS V14.00,2013-03-23 10:26:00,
2013-03-23 05:27:00,27.5,24.1,30.11,NE,53,1.0,3.0,87,0.00,,SCT065,0.00,0.00,VWS V14.00,2013-03-23 10:27:00,
2013-03-23 05:29:00,27.5,24.1,30.11,NE,53,1.0,3.0,87,0.00,,SCT065,0.00,0.00,VWS V14.00,2013-03-23 10:29:00,
2013-03-23 05:30:00,27.5,24.1,30.11,NE,54,1.0,3.0,87,0.00,,BKN100,0.00,0.00,VWS V14.00,2013-03-23 10:30:00,
2013-03-23 05:31:00,27.5,24.1,30.11,NE,54,1.0,3.0,87,0.00,,SCT065,0.00,0.00,VWS V14.00,2013-03-23 10:31:00,
2013-03-23 05:32:00,27.4,24.0,30.11,NE,53,0.0,3.0,87,0.00,,SCT065,0.00,0.00,VWS V14.00,2013-03-23 10:32:00,
2013-03-23 05:34:00,27.4,24.0,30.11,NE,53,3.0,4.0,87,0.00,,SCT065,0.00,0.00,VWS V14.00,2013-03-23 10:34:00,
2013-03-23 05:35:00,27.4,24.0,30.11,NE,53,3.0,4.0,87,0.00,,BKN100,0.00,0.00,VWS V14.00,2013-03-23 10:35:00,
2013-03-23 05:36:00,27.4,24.0,30.11,NE,53,1.0,3.0,87,0.00,,SCT065,0.00,0.00,VWS V14.00,2013-03-23 10:36:00,
2013-03-23 05:37:00,27.4,24.0,30.11,NE,53,0.0,3.0,87,0.00,,SCT065,0.00,0.00,VWS V14.00,2013-03-23 10:37:00,
2013-03-23 05:38:00,27.4,24.0,30.12,NE,53,0.0,3.0,87,0.00,,SCT065,0.00,0.00,VWS V14.00,2013-03-23 10:38:00,
2013-03-23 05:39:00,27.3,24.0,30.12,NE,42,0.0,3.0,87,0.00,,SCT065,0.00,0.00,VWS V14.00,2013-03-23 10:39:00,
2013-03-23 05:40:00,27.3,24.0,30.12,NE,41,3.0,4.0,87,0.00,,BKN100,0.00,0.00,VWS V14.00,2013-03-23 10:40:00,
2013-03-23 05:41:00,27.3,24.0,30.12,NE,41,0.0,3.0,87,0.00,,SCT065,0.00,0.00,VWS V14.00,2013-03-23 10:41:00,
2013-03-23 05:43:00,27.2,23.9,30.11,NE,42,0.0,4.0,87,0.00,,SCT065,0.00,0.00,VWS V14.00,2013-03-23 10:43:00,
2013-03-23 05:45:00,27.2,23.9,30.11,NE,43,0.0,2.0,87,0.00,,SCT065,0.00,0.00,VWS V14.00,2013-03-23 10:45:00,
2013-03-23 05:46:00,27.2,23.9,30.11,NE,43,0.0,2.0,87,0.00,,SCT065,0.00,0.00,VWS V14.00,2013-03-23 10:46:00,
2013-03-23 05:48:00,27.2,23.9,30.12,NE,51,0.0,3.0,87,0.00,,SCT065,0.00,0.00,VWS V14.00,2013-03-23 10:48:00,
2013-03-23 05:50:00,27.2,24.1,30.12,NE,50,0.0,1.0,88,0.00,,SCT065,0.00,0.00,VWS V14.00,2013-03-23 10:50:00,
2013-03-23 05:52:00,27.1,23.8,30.13,NE,51,0.0,1.0,87,0.00,,SCT065,0.00,0.00,VWS V14.00,2013-03-23 10:52:00,
2013-03-23 05:53:00,27.2,23.9,30.13,NE,50,1.0,1.0,87,0.00,,SCT065,0.00,0.00,VWS V14.00,2013-03-23 10:53:00,
2013-03-23 05:55:00,27.1,23.8,30.13,NE,50,0.0,0.0,87,0.00,,SCT065,0.00,0.00,VWS V14.00,2013-03-23 10:55:00,
2013-03-23 05:57:00,27.1,23.8,30.13,NE,51,0.0,1.0,87,0.00,,SCT065,0.00,0.00,VWS V14.00,2013-03-23 10:57:00,
2013-03-23 05:58:00,27.1,23.8,30.13,NE,51,0.0,1.0,87,0.00,,SCT065,0.00,0.00,VWS V14.00,2013-03-23 10:58:00,
2013-03-23 06:00:00,27.0,23.6,30.13,NE,50,0.0,0.0,87,0.00,,SCT065,0.00,0.00,VWS V14.00,2013-03-23 11:00:00,
2013-03-23 06:02:00,27.0,23.6,30.13,NE,50,0.0,0.0,87,0.00,,SCT065,0.00,0.00,VWS V14.00,2013-03-23 11:02:00,
2013-03-23 06:03:00,27.0,23.6,30.13,NE,50,0.0,0.0,87,0.00,,SCT065,0.00,0.00,VWS V14.00,2013-03-23 11:03:00,
2013-03-23 06:04:00,27.0,23.6,30.13,NE,50,0.0,0.0,87,0.00,,SCT065,0.00,0.00,VWS V14.00,2013-03-23 11:04:00,
2013-03-23 06:05:00,27.0,23.6,30.13,NE,50,0.0,0.0,87,0.00,,SCT065,0.00,0.00,VWS V14.00,2013-03-23 11:05:00,
2013-03-23 06:08:00,27.0,23.6,30.13,NE,51,0.0,0.0,87,0.00,,SCT065,0.00,0.00,VWS V14.00,2013-03-23 11:08:00,
2013-03-23 06:09:00,27.0,23.6,30.13,NE,51,0.0,0.0,87,0.00,,SCT065,0.00,0.00,VWS V14.00,2013-03-23 11:09:00,
2013-03-23 06:10:00,27.0,23.6,30.13,NE,51,0.0,0.0,87,0.00,,SCT065,0.00,0.00,VWS V14.00,2013-03-23 11:10:00,
2013-03-23 06:13:00,26.9,23.6,30.13,NE,50,1.0,3.0,87,0.00,,SCT065,0.00,0.00,VWS V14.00,2013-03-23 11:13:00,
2013-03-23 06:14:00,26.9,23.8,30.13,NE,50,0.0,1.0,88,0.00,,SCT065,0.00,0.00,VWS V14.00,2013-03-23 11:14:00,
2013-03-23 06:15:00,26.9,23.8,30.13,NE,50,1.0,3.0,88,0.00,,SCT065,0.00,0.00,VWS V14.00,2013-03-23 11:15:00,
2013-03-23 06:18:00,26.9,23.8,30.14,NE,42,2.0,3.0,88,0.00,,SCT065,0.00,0.00,VWS V14.00,2013-03-23 11:18:00,
2013-03-23 06:19:00,26.9,23.8,30.14,NNE,26,3.0,3.0,88,0.00,,SCT065,0.00,0.00,VWS V14.00,2013-03-23 11:19:00,
2013-03-23 06:20:00,26.9,23.8,30.14,NNE,25,2.0,4.0,88,0.00,,CLR,0.00,0.00,VWS V14.00,2013-03-23 11:20:00,
2013-03-23 06:23:00,26.9,23.8,30.14,NNE,25,1.0,4.0,88,0.00,,CLR,0.00,0.00,VWS V14.00,2013-03-23 11:23:00,
2013-03-23 06:24:00,26.9,23.8,30.14,NNE,25,1.0,1.0,88,0.00,,CLR,0.00,0.00,VWS V14.00,2013-03-23 11:24:00,
2013-03-23 06:25:00,26.9,23.8,30.14,NNE,25,1.0,4.0,88,0.00,,BKN100,0.00,0.00,VWS V14.00,2013-03-23 11:25:00,
2013-03-23 06:26:00,26.9,23.8,30.14,NNE,25,2.0,3.0,88,0.00,,CLR,0.00,0.00,VWS V14.00,2013-03-23 11:26:00,
2013-03-23 06:29:00,27.0,23.9,30.14,NNE,26,3.0,3.0,88,0.00,,CLR,0.00,0.00,VWS V14.00,2013-03-23 11:29:00,
2013-03-23 06:30:00,27.0,23.9,30.14,NNE,26,4.0,4.0,88,0.00,,BKN100,0.00,0.00,VWS V14.00,2013-03-23 11:30:00,
2013-03-23 06:31:00,27.0,23.9,30.14,NNE,26,2.0,4.0,88,0.00,,CLR,0.00,0.00,VWS V14.00,2013-03-23 11:31:00,
2013-03-23 06:34:00,27.0,23.9,30.14,NNE,25,2.0,3.0,88,0.00,,CLR,0.00,0.00,VWS V14.00,2013-03-23 11:34:00,
2013-03-23 06:35:00,27.0,23.9,30.14,NNE,26,0.0,4.0,88,0.00,,BKN100,0.00,0.00,VWS V14.00,2013-03-23 11:35:00,
2013-03-23 06:36:00,27.0,23.9,30.13,NNE,25,0.0,3.0,88,0.00,,CLR,0.00,0.00,VWS V14.00,2013-03-23 11:36:00,
2013-03-23 06:39:00,27.0,23.9,30.13,NNE,25,0.0,2.0,88,0.00,,CLR,0.00,0.00,VWS V14.00,2013-03-23 11:39:00,
2013-03-23 06:40:00,27.1,24.0,30.14,NNE,25,2.0,3.0,88,0.00,,BKN100,0.00,0.00,VWS V14.00,2013-03-23 11:40:00,
2013-03-23 06:41:00,27.1,24.0,30.13,NNE,25,0.0,2.0,88,0.00,,CLR,0.00,0.00,VWS V14.00,2013-03-23 11:41:00,
2013-03-23 06:44:00,27.1,24.0,30.14,NNE,26,0.0,0.0,88,0.00,,CLR,0.00,0.00,VWS V14.00,2013-03-23 11:44:00,
2013-03-23 06:45:00,27.1,24.0,30.14,NNE,26,0.0,0.0,88,0.00,,CLR,0.00,0.00,VWS V14.00,2013-03-23 11:45:00,
2013-03-23 06:47:00,27.1,24.0,30.13,NNE,26,0.0,3.0,88,0.00,,CLR,0.00,0.00,VWS V14.00,2013-03-23 11:47:00,
2013-03-23 06:49:00,27.1,24.0,30.14,NNE,25,3.0,4.0,88,0.00,,CLR,0.00,0.00,VWS V14.00,2013-03-23 11:49:00,
2013-03-23 06:50:00,27.1,24.0,30.14,NNE,25,2.0,4.0,88,0.00,,CLR,0.00,0.00,VWS V14.00,2013-03-23 11:50:00,
2013-03-23 06:52:00,27.1,24.0,30.14,NNE,24,2.0,4.0,88,0.00,,CLR,0.00,0.00,VWS V14.00,2013-03-23 11:52:00,
2013-03-23 06:54:00,27.1,24.0,30.14,NNE,23,2.0,5.0,88,0.00,,CLR,0.00,0.00,VWS V14.00,2013-03-23 11:54:00,
2013-03-23 06:55:00,27.1,24.0,30.14,NNE,22,1.0,5.0,88,0.00,,CLR,0.00,0.00,VWS V14.00,2013-03-23 11:55:00,
2013-03-23 06:57:00,27.1,24.0,30.14,NNE,22,1.0,5.0,88,0.00,,CLR,0.00,0.00,VWS V14.00,2013-03-23 11:57:00,
2013-03-23 06:59:00,27.1,24.0,30.14,NNE,22,1.0,1.0,88,0.00,,CLR,0.00,0.00,VWS V14.00,2013-03-23 11:59:00,
2013-03-23 07:00:00,27.1,24.0,30.14,NNE,22,0.0,2.0,88,0.00,,CLR,0.00,0.00,VWS V14.00,2013-03-23 12:00:00,
2013-03-23 07:03:00,27.1,23.8,30.14,NNE,22,0.0,2.0,87,0.00,,CLR,0.00,0.00,VWS V14.00,2013-03-23 12:03:00,
2013-03-23 07:04:00,27.1,23.8,30.14,NNE,22,2.0,3.0,87,0.00,,CLR,0.00,0.00,VWS V14.00,2013-03-23 12:04:00,
2013-03-23 07:05:00,27.1,23.8,30.14,NNE,22,0.0,3.0,87,0.00,,CLR,0.00,0.00,VWS V14.00,2013-03-23 12:05:00,
2013-03-23 07:06:00,27.1,23.8,30.14,NNE,22,0.0,3.0,87,0.00,,CLR,0.00,0.00,VWS V14.00,2013-03-23 12:06:00,
2013-03-23 07:08:00,27.1,23.5,30.14,NNE,28,1.0,4.0,86,0.00,,CLR,0.00,0.00,VWS V14.00,2013-03-23 12:08:00,
2013-03-23 07:10:00,27.1,23.5,30.14,NNE,24,2.0,2.0,86,0.00,,CLR,0.00,0.00,VWS V14.00,2013-03-23 12:10:00,
2013-03-23 07:11:00,27.2,23.6,30.14,NNE,23,0.0,3.0,86,0.00,,CLR,0.00,0.00,VWS V14.00,2013-03-23 12:11:00,
2013-03-23 07:12:00,27.2,23.6,30.14,NNE,22,3.0,3.0,86,0.00,,CLR,0.00,0.00,VWS V14.00,2013-03-23 12:12:00,
2013-03-23 07:13:00,27.2,23.6,30.14,NNE,24,1.0,4.0,86,0.00,,CLR,0.00,0.00,VWS V14.00,2013-03-23 12:13:00,
2013-03-23 07:15:00,27.2,23.6,30.14,NNE,24,2.0,4.0,86,0.00,,CLR,0.00,0.00,VWS V14.00,2013-03-23 12:15:00,
2013-03-23 07:16:00,27.1,23.5,30.14,North,9,1.0,4.0,86,0.00,,CLR,0.00,0.00,VWS V14.00,2013-03-23 12:16:00,
2013-03-23 07:17:00,27.1,23.5,30.14,North,10,1.0,5.0,86,0.00,,CLR,0.00,0.00,VWS V14.00,2013-03-23 12:17:00,
2013-03-23 07:18:00,27.1,23.5,30.14,North,11,3.0,5.0,86,0.00,,CLR,0.00,0.00,VWS V14.00,2013-03-23 12:18:00,
2013-03-23 07:20:00,27.1,23.5,30.14,NNE,13,2.0,4.0,86,0.00,,CLR,0.00,5.00,VWS V14.00,2013-03-23 12:20:00,
2013-03-23 07:22:00,27.1,23.5,30.14,North,9,5.0,5.0,86,0.00,,CLR,0.00,5.00,VWS V14.00,2013-03-23 12:22:00,
2013-03-23 07:24:00,27.2,23.9,30.14,NNE,30,3.0,3.0,87,0.00,,CLR,0.00,5.00,VWS V14.00,2013-03-23 12:24:00,
2013-03-23 07:25:00,27.2,23.9,30.14,NE,43,3.0,6.0,87,0.00,,BKN100,0.00,5.00,VWS V14.00,2013-03-23 12:25:00,
2013-03-23 07:26:00,27.2,23.9,30.14,North,360,1.0,6.0,87,0.00,,CLR,0.00,5.00,VWS V14.00,2013-03-23 12:26:00,
2013-03-23 07:27:00,27.2,23.6,30.14,NNE,17,3.0,6.0,86,0.00,,CLR,0.00,7.00,VWS V14.00,2013-03-23 12:27:00,
2013-03-23 07:29:00,27.1,23.5,30.14,NNE,22,3.0,3.0,86,0.00,,CLR,0.00,7.00,VWS V14.00,2013-03-23 12:29:00,
2013-03-23 07:30:00,27.1,23.5,30.14,NNE,22,3.0,6.0,86,0.00,,BKN100,0.00,7.00,VWS V14.00,2013-03-23 12:30:00,
2013-03-23 07:31:00,27.2,23.6,30.14,NNE,22,0.0,4.0,86,0.00,,CLR,0.00,9.00,VWS V14.00,2013-03-23 12:31:00,
2013-03-23 07:32:00,27.1,23.5,30.14,North,5,4.0,5.0,86,0.00,,CLR,0.00,9.00,VWS V14.00,2013-03-23 12:32:00,
2013-03-23 07:34:00,27.2,23.6,30.14,North,9,2.0,2.0,86,0.00,,CLR,0.00,11.00,VWS V14.00,2013-03-23 12:34:00,
2013-03-23 07:35:00,27.2,23.6,30.14,North,5,0.0,5.0,86,0.00,,BKN100,0.00,11.00,VWS V14.00,2013-03-23 12:35:00,
2013-03-23 07:36:00,27.2,23.3,30.14,North,360,3.0,4.0,85,0.00,,CLR,0.00,12.00,VWS V14.00,2013-03-23 12:36:00,
2013-03-23 07:37:00,27.2,23.3,30.15,North,355,3.0,4.0,85,0.00,,CLR,0.00,12.00,VWS V14.00,2013-03-23 12:37:00,
2013-03-23 07:39:00,27.2,23.3,30.15,North,5,0.0,2.0,85,0.00,,CLR,0.00,14.00,VWS V14.00,2013-03-23 12:39:00,
2013-03-23 07:40:00,27.2,23.3,30.15,North,9,0.0,4.0,85,0.00,,BKN100,0.00,14.00,VWS V14.00,2013-03-23 12:40:00,
2013-03-23 07:41:00,27.2,23.3,30.15,North,9,0.0,3.0,85,0.00,,CLR,0.00,16.00,VWS V14.00,2013-03-23 12:41:00,
2013-03-23 07:42:00,27.2,23.3,30.15,NNE,27,4.0,4.0,85,0.00,,CLR,0.00,18.00,VWS V14.00,2013-03-23 12:42:00,
2013-03-23 07:43:00,27.2,23.3,30.15,NNE,26,0.0,4.0,85,0.00,,CLR,0.00,19.00,VWS V14.00,2013-03-23 12:43:00,
2013-03-23 07:45:00,27.2,23.3,30.15,NNE,20,3.0,5.0,85,0.00,,CLR,0.00,21.00,VWS V14.00,2013-03-23 12:45:00,
2013-03-23 07:47:00,27.3,23.4,30.15,NNE,17,6.0,6.0,85,0.00,,CLR,0.00,25.00,VWS V14.00,2013-03-23 12:47:00,
2013-03-23 07:48:00,27.3,23.4,30.15,North,350,3.0,6.0,85,0.00,,CLR,0.00,25.00,VWS V14.00,2013-03-23 12:48:00,
2013-03-23 07:50:00,27.3,25.3,30.15,North,9,1.0,5.0,92,0.00,,CLR,0.00,30.00,VWS V14.00,2013-03-23 12:50:00,
2013-03-23 07:52:00,27.4,23.8,30.15,North,11,1.0,5.0,86,0.00,,CLR,0.00,33.00,VWS V14.00,2013-03-23 12:52:00,
2013-03-23 07:53:00,27.4,23.8,30.15,ENE,71,2.0,5.0,86,0.00,,CLR,0.00,33.00,VWS V14.00,2013-03-23 12:53:00,
2013-03-23 07:54:00,27.4,23.8,30.15,NE,36,4.0,5.0,86,0.00,,CLR,0.00,35.00,VWS V14.00,2013-03-23 12:54:00,
2013-03-23 07:55:00,27.4,23.8,30.15,NE,36,4.0,5.0,86,0.00,,BKN100,0.00,35.00,VWS V14.00,2013-03-23 12:55:00,
2013-03-23 07:57:00,27.5,23.9,30.15,North,9,5.0,5.0,86,0.00,,CLR,0.00,40.00,VWS V14.00,2013-03-23 12:57:00,
2013-03-23 07:58:00,27.5,23.9,30.15,North,5,3.0,5.0,86,0.00,,CLR,0.00,42.00,VWS V14.00,2013-03-23 12:58:00,
2013-03-23 07:59:00,27.5,23.9,30.15,North,9,3.0,3.0,86,0.00,,CLR,0.00,44.00,VWS V14.00,2013-03-23 12:59:00,
2013-03-23 08:00:00,27.5,23.9,30.15,North,5,3.0,5.0,86,0.00,,BKN100,0.00,44.00,VWS V14.00,2013-03-23 13:00:00,
2013-03-23 08:02:00,27.6,24.2,30.15,NNE,18,4.0,5.0,87,0.00,,CLR,0.00,49.00,VWS V14.00,2013-03-23 13:02:00,
2013-03-23 08:04:00,27.7,24.3,30.15,NNE,27,3.0,5.0,87,0.00,,CLR,0.00,51.00,VWS V14.00,2013-03-23 13:04:00,
2013-03-23 08:05:00,27.7,24.3,30.15,NNE,27,3.0,5.0,87,0.00,,BKN100,0.00,51.00,VWS V14.00,2013-03-23 13:05:00,
2013-03-23 08:07:00,27.8,24.2,30.15,NNE,19,4.0,6.0,86,0.00,,CLR,0.00,56.00,VWS V14.00,2013-03-23 13:07:00,
2013-03-23 08:08:00,27.8,24.2,30.15,North,9,2.0,6.0,86,0.00,,CLR,0.00,58.00,VWS V14.00,2013-03-23 13:08:00,
2013-03-23 08:09:00,27.8,24.2,30.15,NE,39,2.0,3.0,86,0.00,,CLR,0.00,60.00,VWS V14.00,2013-03-23 13:09:00,
2013-03-23 08:10:00,27.8,24.2,30.15,NE,40,3.0,6.0,86,0.00,,BKN100,0.00,60.00,VWS V14.00,2013-03-23 13:10:00,
2013-03-23 08:12:00,27.9,24.0,30.15,NE,48,5.0,7.0,85,0.00,,CLR,0.00,67.00,VWS V14.00,2013-03-23 13:12:00,
2013-03-23 08:13:00,27.9,23.7,30.15,NNE,29,6.0,7.0,84,0.00,,CLR,0.00,69.00,VWS V14.00,2013-03-23 13:13:00,
2013-03-23 08:14:00,27.9,23.7,30.15,NNE,18,2.0,5.0,84,0.00,,CLR,0.00,70.00,VWS V14.00,2013-03-23 13:14:00,
2013-03-23 08:15:00,27.9,23.7,30.15,NE,39,3.0,7.0,84,0.00,,BKN100,0.00,69.00,VWS V14.00,2013-03-23 13:15:00,
2013-03-23 08:18:00,28.1,23.9,30.16,North,355,1.0,10.0,84,0.00,,CLR,0.00,67.00,VWS V14.00,2013-03-23 13:18:00,
2013-03-23 08:19:00,28.2,24.0,30.16,NE,37,4.0,4.0,84,0.00,,CLR,0.00,67.00,VWS V14.00,2013-03-23 13:19:00,
2013-03-23 08:20:00,28.2,24.0,30.16,North,355,1.0,10.0,84,0.00,,BKN100,0.00,67.00,VWS V14.00,2013-03-23 13:20:00,
2013-03-23 08:23:00,28.3,23.8,30.16,NNE,25,4.0,9.0,83,0.00,,CLR,0.00,67.00,VWS V14.00,2013-03-23 13:23:00,
2013-03-23 08:24:00,28.3,23.8,30.16,NE,49,2.0,2.0,83,0.00,,CLR,0.00,69.00,VWS V14.00,2013-03-23 13:24:00,
2013-03-23 08:25:00,28.4,23.9,30.16,NE,50,0.0,9.0,83,0.00,,BKN100,0.00,67.00,VWS V14.00,2013-03-23 13:25:00,
2013-03-23 08:28:00,28.4,23.6,30.16,North,11,2.0,6.0,82,0.00,,CLR,0.00,69.00,VWS V14.00,2013-03-23 13:28:00,
2013-03-23 08:29:00,28.4,23.6,30.16,North,9,2.0,6.0,82,0.00,,CLR,0.00,69.00,VWS V14.00,2013-03-23 13:29:00,
2013-03-23 08:30:00,28.5,23.7,30.16,North,9,3.0,4.0,82,0.00,,CLR,0.00,67.00,VWS V14.00,2013-03-23 13:30:00,
2013-03-23 08:33:00,28.5,23.4,30.15,NE,35,2.0,6.0,81,0.00,,CLR,0.00,69.00,VWS V14.00,2013-03-23 13:33:00,
2013-03-23 08:34:00,28.6,23.5,30.15,NE,34,2.0,6.0,81,0.00,,CLR,0.00,69.00,VWS V14.00,2013-03-23 13:34:00,
2013-03-23 08:35:00,28.6,23.5,30.15,NNE,13,5.0,5.0,81,0.00,,CLR,0.00,67.00,VWS V14.00,2013-03-23 13:35:00,
2013-03-23 08:38:00,28.7,23.6,30.15,NNW,341,6.0,7.0,81,0.00,,CLR,0.00,72.00,VWS V14.00,2013-03-23 13:38:00,
2013-03-23 08:39:00,28.7,23.6,30.15,North,11,5.0,7.0,81,0.00,,CLR,0.00,72.00,VWS V14.00,2013-03-23 13:39:00,
2013-03-23 08:40:00,28.7,23.6,30.15,North,5,4.0,7.0,81,0.00,,CLR,0.00,74.00,VWS V14.00,2013-03-23 13:40:00,
2013-03-23 08:43:00,28.8,23.4,30.16,North,10,2.0,7.0,80,0.00,,CLR,0.00,81.00,VWS V14.00,2013-03-23 13:43:00,
2013-03-23 08:44:00,28.8,23.4,30.16,ENE,66,3.0,9.0,80,0.00,,CLR,0.00,81.00,VWS V14.00,2013-03-23 13:44:00,
2013-03-23 08:45:00,28.8,23.4,30.16,NE,48,5.0,8.0,80,0.00,,CLR,0.00,81.00,VWS V14.00,2013-03-23 13:45:00,
2013-03-23 08:48:00,28.8,23.1,30.16,NE,38,2.0,8.0,79,0.00,,CLR,0.00,84.00,VWS V14.00,2013-03-23 13:48:00,
2013-03-23 08:49:00,28.8,23.1,30.16,North,11,5.0,5.0,79,0.00,,CLR,0.00,86.00,VWS V14.00,2013-03-23 13:49:00,
2013-03-23 08:50:00,28.9,23.2,30.16,NNE,21,4.0,5.0,79,0.00,,CLR,0.00,86.00,VWS V14.00,2013-03-23 13:50:00,
2013-03-23 08:54:00,28.9,23.2,30.16,North,10,2.0,6.0,79,0.00,,CLR,0.00,84.00,VWS V14.00,2013-03-23 13:54:00,
2013-03-23 08:55:00,29.0,23.3,30.17,NNE,17,1.0,3.0,79,0.00,,CLR,0.00,88.00,VWS V14.00,2013-03-23 13:55:00,
2013-03-23 08:59:00,29.1,23.1,30.17,North,360,2.0,2.0,78,0.00,,CLR,0.00,86.00,VWS V14.00,2013-03-23 13:59:00,
2013-03-23 09:00:00,29.1,23.1,30.17,North,350,4.0,7.0,78,0.00,,CLR,0.00,86.00,VWS V14.00,2013-03-23 14:00:00,
2013-03-23 09:04:00,29.2,22.6,30.17,NNE,15,3.0,5.0,76,0.00,,CLR,0.00,84.00,VWS V14.00,2013-03-23 14:04:00,
2013-03-23 09:05:00,29.2,22.6,30.17,NNW,348,6.0,8.0,76,0.00,,CLR,0.00,83.00,VWS V14.00,2013-03-23 14:05:00,
2013-03-23 09:10:00,29.3,22.4,30.17,North,355,6.0,8.0,75,0.00,,CLR,0.00,86.00,VWS V14.00,2013-03-23 14:10:00,
2013-03-23 09:11:00,29.3,22.4,30.17,NNE,28,2.0,9.0,75,0.00,,CLR,0.00,90.00,VWS V14.00,2013-03-23 14:11:00,
2013-03-23 09:15:00,29.3,22.4,30.17,NNE,23,4.0,6.0,75,0.00,,CLR,0.00,91.00,VWS V14.00,2013-03-23 14:15:00,
2013-03-23 09:16:00,29.4,22.5,30.17,NNE,26,2.0,6.0,75,0.00,,CLR,0.00,93.00,VWS V14.00,2013-03-23 14:16:00,
2013-03-23 09:20:00,29.4,22.1,30.17,NNE,24,3.0,6.0,74,0.00,,CLR,0.00,91.00,VWS V14.00,2013-03-23 14:20:00,
2013-03-23 09:22:00,29.4,22.1,30.17,North,9,2.0,8.0,74,0.00,,CLR,0.00,93.00,VWS V14.00,2013-03-23 14:22:00,
2013-03-23 09:25:00,29.5,22.2,30.17,NNE,26,4.0,8.0,74,0.00,,CLR,0.00,95.00,VWS V14.00,2013-03-23 14:25:00,
2013-03-23 09:26:00,29.5,22.2,30.17,North,5,2.0,8.0,74,0.00,,CLR,0.00,97.00,VWS V14.00,2013-03-23 14:26:00,
2013-03-23 09:28:00,29.5,22.2,30.17,NNE,13,6.0,9.0,74,0.00,,CLR,0.00,98.00,VWS V14.00,2013-03-23 14:28:00,
2013-03-23 09:30:00,29.6,22.0,30.17,NNE,17,2.0,8.0,73,0.00,,CLR,0.00,98.00,VWS V14.00,2013-03-23 14:30:00,
2013-03-23 09:31:00,29.6,22.0,30.17,NE,53,4.0,8.0,73,0.00,,CLR,0.00,98.00,VWS V14.00,2013-03-23 14:31:00,
2013-03-23 09:33:00,29.6,22.0,30.16,NE,48,4.0,8.0,73,0.00,,CLR,0.00,98.00,VWS V14.00,2013-03-23 14:33:00,
2013-03-23 09:35:00,29.6,22.0,30.16,NE,47,2.0,7.0,73,0.00,,CLR,0.00,98.00,VWS V14.00,2013-03-23 14:35:00,
2013-03-23 09:36:00,29.6,22.0,30.16,NE,51,3.0,7.0,73,0.00,,CLR,0.00,98.00,VWS V14.00,2013-03-23 14:36:00,
2013-03-23 09:37:00,29.7,22.1,30.16,ENE,69,2.0,7.0,73,0.00,,CLR,0.00,100.00,VWS V14.00,2013-03-23 14:37:00,
2013-03-23 09:38:00,29.7,22.1,30.16,East,101,1.0,7.0,73,0.00,,CLR,0.00,104.00,VWS V14.00,2013-03-23 14:38:00,
2013-03-23 09:40:00,29.7,22.1,30.16,NNE,32,3.0,7.0,73,0.00,,BKN100,0.00,102.00,VWS V14.00,2013-03-23 14:40:00,
2013-03-23 09:41:00,29.7,21.8,30.16,NE,38,1.0,9.0,72,0.00,,CLR,0.00,102.00,VWS V14.00,2013-03-23 14:41:00,
2013-03-23 09:42:00,29.7,22.1,30.16,NNE,26,6.0,9.0,73,0.00,,CLR,0.00,105.00,VWS V14.00,2013-03-23 14:42:00,
2013-03-23 09:43:00,29.8,22.2,30.16,NE,42,5.0,9.0,73,0.00,,CLR,0.00,107.00,VWS V14.00,2013-03-23 14:43:00,
2013-03-23 09:45:00,29.8,22.2,30.16,NE,36,7.0,9.0,73,0.00,,BKN100,0.00,109.00,VWS V14.00,2013-03-23 14:45:00,
2013-03-23 09:46:00,29.8,21.9,30.16,NNW,336,2.0,9.0,72,0.00,,CLR,0.00,109.00,VWS V14.00,2013-03-23 14:46:00,
2013-03-23 09:47:00,29.9,22.0,30.16,NNE,15,5.0,9.0,72,0.00,,CLR,0.00,113.00,VWS V14.00,2013-03-23 14:47:00,
2013-03-23 09:48:00,29.9,22.0,30.16,ENE,62,3.0,9.0,72,0.00,,CLR,0.00,107.00,VWS V14.00,2013-03-23 14:48:00,
2013-03-23 09:50:00,29.9,22.0,30.16,ENE,61,2.0,9.0,72,0.00,,BKN100,0.00,116.00,VWS V14.00,2013-03-23 14:50:00,
2013-03-23 09:52:00,30.0,22.4,30.16,NNE,15,6.0,11.0,73,0.00,,CLR,0.00,109.00,VWS V14.00,2013-03-23 14:52:00,
2013-03-23 09:53:00,30.0,22.4,30.16,NNE,31,3.0,11.0,73,0.00,,CLR,0.00,123.00,VWS V14.00,2013-03-23 14:53:00,
2013-03-23 09:55:00,30.1,22.5,30.16,NNE,28,4.0,11.0,73,0.00,,BKN100,0.00,121.00,VWS V14.00,2013-03-23 14:55:00,
2013-03-23 09:57:00,30.1,22.5,30.17,North,5,6.0,9.0,73,0.00,,CLR,0.00,125.00,VWS V14.00,2013-03-23 14:57:00,
2013-03-23 09:59:00,30.2,22.3,30.17,NNE,13,5.0,6.0,72,0.00,,CLR,0.00,121.00,VWS V14.00,2013-03-23 14:59:00,
2013-03-23 10:00:00,30.2,22.6,30.17,North,9,6.0,9.0,73,0.00,,BKN100,0.00,125.00,VWS V14.00,2013-03-23 15:00:00,
2013-03-23 10:03:00,30.3,22.4,30.17,NNE,18,3.0,7.0,72,0.00,,CLR,0.00,113.00,VWS V14.00,2013-03-23 15:03:00,
2013-03-23 10:05:00,30.3,22.7,30.17,NE,52,3.0,7.0,73,0.00,,CLR,0.00,113.00,VWS V14.00,2013-03-23 15:05:00,
2013-03-23 10:08:00,30.4,22.8,30.17,NNE,24,4.0,7.0,73,0.00,,CLR,0.00,118.00,VWS V14.00,2013-03-23 15:08:00,
2013-03-23 10:10:00,30.5,22.9,30.17,North,360,3.0,7.0,73,0.00,,CLR,0.00,116.00,VWS V14.00,2013-03-23 15:10:00,
2013-03-23 10:13:00,30.5,22.9,30.17,NNE,15,6.0,7.0,73,0.00,,CLR,0.00,120.00,VWS V14.00,2013-03-23 15:13:00,
2013-03-23 10:15:00,30.6,23.0,30.17,North,10,6.0,7.0,73,0.00,,CLR,0.00,130.00,VWS V14.00,2013-03-23 15:15:00,
2013-03-23 10:18:00,30.6,23.0,30.17,North,11,3.0,8.0,73,0.00,,CLR,0.00,137.00,VWS V14.00,2013-03-23 15:18:00,
2013-03-23 10:19:00,30.6,23.0,30.17,NNE,13,0.0,8.0,73,0.00,,CLR,0.00,142.00,VWS V14.00,2013-03-23 15:19:00,
2013-03-23 10:20:00,30.6,22.7,30.17,ENE,71,6.0,6.0,72,0.00,,CLR,0.00,148.00,VWS V14.00,2013-03-23 15:20:00,
2013-03-23 10:23:00,30.6,22.7,30.17,NNE,32,3.0,6.0,72,0.00,,CLR,0.00,160.00,VWS V14.00,2013-03-23 15:23:00,
2013-03-23 10:24:00,30.6,22.7,30.17,NE,45,2.0,6.0,72,0.00,,CLR,0.00,160.00,VWS V14.00,2013-03-23 15:24:00,
2013-03-23 10:25:00,30.6,22.7,30.17,North,9,4.0,7.0,72,0.00,,CLR,0.00,169.00,VWS V14.00,2013-03-23 15:25:00,
2013-03-23 10:29:00,30.7,22.8,30.17,NNW,338,1.0,7.0,72,0.00,,CLR,0.00,172.00,VWS V14.00,2013-03-23 15:29:00,
2013-03-23 10:30:00,30.7,22.8,30.17,NNW,348,2.0,7.0,72,0.00,,BKN100,0.00,167.00,VWS V14.00,2013-03-23 15:30:00,
2013-03-23 10:31:00,30.9,23.0,30.17,NNW,329,2.0,7.0,72,0.00,,CLR,0.00,172.00,VWS V14.00,2013-03-23 15:31:00,
2013-03-23 10:34:00,31.0,23.0,30.17,ENE,70,3.0,7.0,72,0.00,,CLR,0.00,185.00,VWS V14.00,2013-03-23 15:34:00,
2013-03-23 10:35:00,31.0,23.0,30.17,NE,51,5.0,7.0,72,0.00,,BKN100,0.00,185.00,VWS V14.00,2013-03-23 15:35:00,
2013-03-23 10:36:00,31.0,22.4,30.17,NNE,29,7.0,8.0,70,0.00,,CLR,0.00,186.00,VWS V14.00,2013-03-23 15:36:00,
2013-03-23 10:39:00,31.1,22.5,30.16,ENE,57,4.0,8.0,70,0.00,,CLR,0.00,171.00,VWS V14.00,2013-03-23 15:39:00,
2013-03-23 10:40:00,31.1,22.5,30.16,ENE,57,4.0,8.0,70,0.00,,BKN100,0.00,171.00,VWS V14.00,2013-03-23 15:40:00,
2013-03-23 10:41:00,31.0,22.4,30.16,North,5,5.0,10.0,70,0.00,,CLR,0.00,151.00,VWS V14.00,2013-03-23 15:41:00,
2013-03-23 10:44:00,31.0,22.7,30.16,NE,34,6.0,10.0,71,0.00,,CLR,0.00,167.00,VWS V14.00,2013-03-23 15:44:00,
2013-03-23 10:45:00,31.0,22.7,30.16,NE,34,6.0,10.0,71,0.00,,BKN100,0.00,167.00,VWS V14.00,2013-03-23 15:45:00,
2013-03-23 10:47:00,31.1,23.1,30.16,NNE,23,4.0,11.0,72,0.00,,CLR,0.00,185.00,VWS V14.00,2013-03-23 15:47:00,
2013-03-23 10:49:00,31.2,22.9,30.16,ENE,76,6.0,12.0,71,0.00,,CLR,0.00,209.00,VWS V14.00,2013-03-23 15:49:00,
2013-03-23 10:50:00,31.2,22.9,30.16,ENE,76,6.0,12.0,71,0.00,,BKN100,0.00,209.00,VWS V14.00,2013-03-23 15:50:00,
2013-03-23 10:52:00,31.3,22.7,30.16,NE,46,7.0,9.0,70,0.00,,CLR,0.00,229.00,VWS V14.00,2013-03-23 15:52:00,
2013-03-23 10:54:00,31.5,22.9,30.16,East,89,2.0,4.0,70,0.00,,CLR,0.00,232.00,VWS V14.00,2013-03-23 15:54:00,
2013-03-23 10:55:00,31.5,22.9,30.16,East,90,4.0,9.0,70,0.00,,BKN100,0.00,232.00,VWS V14.00,2013-03-23 15:55:00,
2013-03-23 10:57:00,31.6,23.0,30.16,NNE,31,3.0,13.0,70,0.00,,CLR,0.00,190.00,VWS V14.00,2013-03-23 15:57:00,
2013-03-23 10:59:00,31.6,23.0,30.16,NE,42,5.0,6.0,70,0.00,,CLR,0.00,202.00,VWS V14.00,2013-03-23 15:59:00,
2013-03-23 11:00:00,31.6,23.0,30.16,NE,42,3.0,11.0,70,0.00,,CLR,0.00,211.00,VWS V14.00,2013-03-23 16:00:00,
2013-03-23 11:02:00,31.7,22.4,30.16,NNE,20,4.0,11.0,68,0.00,,CLR,0.00,209.00,VWS V14.00,2013-03-23 16:02:00,
2013-03-23 11:04:00,31.7,22.4,30.16,NE,48,6.0,6.0,68,0.00,,CLR,0.00,188.00,VWS V14.00,2013-03-23 16:04:00,
2013-03-23 11:05:00,31.7,22.0,30.16,ENE,58,3.0,9.0,67,0.00,,CLR,0.00,190.00,VWS V14.00,2013-03-23 16:05:00,
2013-03-23 11:08:00,31.8,22.1,30.16,NE,51,6.0,12.0,67,0.00,,CLR,0.00,207.00,VWS V14.00,2013-03-23 16:08:00,
2013-03-23 11:09:00,31.9,22.2,30.16,NNE,26,7.0,8.0,67,0.00,,CLR,0.00,197.00,VWS V14.00,2013-03-23 16:09:00,
2013-03-23 11:10:00,31.9,22.2,30.16,NE,50,2.0,8.0,67,0.00,,CLR,0.00,199.00,VWS V14.00,2013-03-23 16:10:00,
2013-03-23 11:13:00,32.0,21.9,30.17,East,96,5.0,10.0,66,0.00,,CLR,0.00,183.00,VWS V14.00,2013-03-23 16:13:00,
2013-03-23 11:14:00,31.9,21.5,30.17,ENE,67,4.0,8.0,65,0.00,,CLR,0.00,190.00,VWS V14.00,2013-03-23 16:14:00,
2013-03-23 11:15:00,31.9,21.5,30.17,North,5,6.0,8.0,65,0.00,,CLR,0.00,206.00,VWS V14.00,2013-03-23 16:15:00,
2013-03-23 11:18:00,32.0,22.3,30.17,NNE,32,4.0,8.0,67,0.00,,CLR,0.00,204.00,VWS V14.00,2013-03-23 16:18:00,
2013-03-23 11:19:00,32.0,22.3,30.17,NE,37,1.0,4.0,67,0.00,,CLR,0.00,188.00,VWS V14.00,2013-03-23 16:19:00,
2013-03-23 11:20:00,32.1,22.4,30.17,ENE,68,5.0,5.0,67,0.00,,CLR,0.00,179.00,VWS V14.00,2013-03-23 16:20:00,
2013-03-23 11:23:00,32.3,22.2,30.17,NE,40,2.0,10.0,66,0.00,,CLR,0.00,174.00,VWS V14.00,2013-03-23 16:23:00,
2013-03-23 11:24:00,32.3,21.9,30.17,NE,49,2.0,3.0,65,0.00,,CLR,0.00,167.00,VWS V14.00,2013-03-23 16:24:00,
2013-03-23 11:25:00,32.3,22.2,30.17,ENE,71,7.0,10.0,66,0.00,,CLR,0.00,169.00,VWS V14.00,2013-03-23 16:25:00,
2013-03-23 11:29:00,32.4,22.3,30.17,NNE,16,4.0,4.0,66,0.00,,CLR,0.00,174.00,VWS V14.00,2013-03-23 16:29:00,
2013-03-23 11:30:00,32.4,22.3,30.17,NNE,26,3.0,4.0,66,0.00,,CLR,0.00,179.00,VWS V14.00,2013-03-23 16:30:00,
2013-03-23 11:34:00,32.6,22.5,30.17,NE,54,8.0,8.0,66,0.00,,CLR,0.00,171.00,VWS V14.00,2013-03-23 16:34:00,
2013-03-23 11:35:00,32.6,22.5,30.17,NE,49,8.0,10.0,66,0.00,,CLR,0.00,176.00,VWS V14.00,2013-03-23 16:35:00,
2013-03-23 11:39:00,32.6,22.1,30.17,ESE,104,7.0,7.0,65,0.00,,CLR,0.00,188.00,VWS V14.00,2013-03-23 16:39:00,
2013-03-23 11:40:00,32.6,22.1,30.17,East,91,7.0,11.0,65,0.00,,CLR,0.00,178.00,VWS V14.00,2013-03-23 16:40:00,
2013-03-23 11:41:00,32.5,21.7,30.17,NE,44,3.0,11.0,64,0.00,,CLR,0.00,190.00,VWS V14.00,2013-03-23 16:41:00,
2013-03-23 11:44:00,32.4,22.0,30.17,NE,41,8.0,8.0,65,0.00,,CLR,0.00,236.00,VWS V14.00,2013-03-23 16:44:00,
2013-03-23 11:45:00,32.4,22.0,30.17,North,9,5.0,8.0,65,0.00,,CLR,0.00,253.00,VWS V14.00,2013-03-23 16:45:00,
2013-03-23 11:46:00,32.5,22.1,30.17,NNE,24,3.0,8.0,65,0.00,,CLR,0.00,272.00,VWS V14.00,2013-03-23 16:46:00,
2013-03-23 11:49:00,33.1,22.6,30.17,NE,43,4.0,5.0,65,0.00,,CLR,0.00,253.00,VWS V14.00,2013-03-23 16:49:00,
2013-03-23 11:50:00,33.1,22.3,30.17,ENE,63,4.0,6.0,64,0.00,,CLR,0.00,246.00,VWS V14.00,2013-03-23 16:50:00,
2013-03-23 11:51:00,33.2,22.4,30.17,ENE,65,8.0,8.0,64,0.00,,CLR,0.00,327.00,VWS V14.00,2013-03-23 16:51:00,
2013-03-23 11:54:00,33.3,22.1,30.17,East,97,5.0,5.0,63,0.00,,CLR,0.00,267.00,VWS V14.00,2013-03-23 16:54:00,
2013-03-23 11:55:00,33.3,21.7,30.17,NE,55,3.0,5.0,62,0.00,,CLR,0.00,274.00,VWS V14.00,2013-03-23 16:55:00,
2013-03-23 11:56:00,33.2,21.6,30.17,NE,47,3.0,5.0,62,0.00,,CLR,0.00,274.00,VWS V14.00,2013-03-23 16:56:00,
2013-03-23 11:57:00,33.2,22.0,30.17,NE,51,1.0,5.0,63,0.00,,CLR,0.00,253.00,VWS V14.00,2013-03-23 16:57:00,
2013-03-23 12:00:00,33.2,22.4,30.17,East,89,4.0,6.0,64,0.00,,CLR,0.00,264.00,VWS V14.00,2013-03-23 17:00:00,
2013-03-23 12:01:00,33.3,22.1,30.17,ENE,76,1.0,6.0,63,0.00,,CLR,0.00,255.00,VWS V14.00,2013-03-23 17:01:00,
2013-03-23 12:02:00,33.4,22.5,30.17,East,92,5.0,6.0,64,0.00,,CLR,0.00,239.00,VWS V14.00,2013-03-23 17:02:00,
2013-03-23 12:05:00,33.6,22.0,30.17,ENE,60,6.0,7.0,62,0.00,,CLR,0.00,209.00,VWS V14.00,2013-03-23 17:05:00,
2013-03-23 12:06:00,33.7,21.7,30.17,North,355,3.0,7.0,61,0.00,,CLR,0.00,264.00,VWS V14.00,2013-03-23 17:06:00,
2013-03-23 12:07:00,33.9,21.9,30.17,NNE,17,5.0,10.0,61,0.00,,CLR,0.00,360.00,VWS V14.00,2013-03-23 17:07:00,
2013-03-23 12:10:00,34.3,22.3,30.17,ESE,119,7.0,10.0,61,0.00,,CLR,0.00,287.00,VWS V14.00,2013-03-23 17:10:00,
2013-03-23 12:11:00,34.4,22.4,30.17,ENE,70,3.0,10.0,61,0.00,,CLR,0.00,223.00,VWS V14.00,2013-03-23 17:11:00,
2013-03-23 12:12:00,34.4,22.4,30.17,NNE,15,4.0,10.0,61,0.00,,CLR,0.00,281.00,VWS V14.00,2013-03-23 17:12:00,
2013-03-23 12:15:00,34.5,22.5,30.17,NE,44,4.0,7.0,61,0.00,,CLR,0.00,306.00,VWS V14.00,2013-03-23 17:15:00,
2013-03-23 12:16:00,34.5,21.7,30.17,NE,53,4.0,7.0,59,0.00,,CLR,0.00,295.00,VWS V14.00,2013-03-23 17:16:00,
2013-03-23 12:18:00,34.5,21.3,30.17,NNW,329,5.0,7.0,58,0.00,,CLR,0.00,299.00,VWS V14.00,2013-03-23 17:18:00,
2013-03-23 12:20:00,34.5,21.7,30.17,NE,55,4.0,7.0,59,0.00,,CLR,0.00,229.00,VWS V14.00,2013-03-23 17:20:00,
2013-03-23 12:22:00,34.4,21.6,30.17,NNE,14,6.0,7.0,59,0.00,,CLR,0.00,355.00,VWS V14.00,2013-03-23 17:22:00,
2013-03-23 12:23:00,34.4,21.6,30.17,NNE,19,3.0,7.0,59,0.00,,CLR,0.00,385.00,VWS V14.00,2013-03-23 17:23:00,
2013-03-23 12:25:00,34.6,21.8,30.17,East,80,3.0,6.0,59,0.00,,CLR,0.00,274.00,VWS V14.00,2013-03-23 17:25:00,
2013-03-23 12:27:00,34.7,21.9,30.17,ENE,74,3.0,6.0,59,0.00,,CLR,0.00,301.00,VWS V14.00,2013-03-23 17:27:00,
2013-03-23 12:28:00,34.7,21.5,30.17,NE,44,4.0,7.0,58,0.00,,CLR,0.00,246.00,VWS V14.00,2013-03-23 17:28:00,
2013-03-23 12:30:00,34.6,21.0,30.17,NE,42,2.0,6.0,57,0.00,,CLR,0.00,229.00,VWS V14.00,2013-03-23 17:30:00,
2013-03-23 12:33:00,34.6,21.4,30.17,NE,56,6.0,7.0,58,0.00,,CLR,0.00,216.00,VWS V14.00,2013-03-23 17:33:00,
2013-03-23 12:35:00,34.7,21.0,30.17,ENE,59,3.0,5.0,57,0.00,,CLR,0.00,260.00,VWS V14.00,2013-03-23 17:35:00,
2013-03-23 12:36:00,34.8,21.1,30.17,NNE,28,2.0,5.0,57,0.00,,CLR,0.00,264.00,VWS V14.00,2013-03-23 17:36:00,
2013-03-23 12:38:00,34.8,21.1,30.17,ENE,57,6.0,6.0,57,0.00,,CLR,0.00,253.00,VWS V14.00,2013-03-23 17:38:00,
2013-03-23 12:40:00,34.7,20.6,30.17,ENE,59,4.0,4.0,56,0.00,,CLR,0.00,260.00,VWS V14.00,2013-03-23 17:40:00,
2013-03-23 12:41:00,34.7,21.0,30.17,NE,48,2.0,4.0,57,0.00,,CLR,0.00,262.00,VWS V14.00,2013-03-23 17:41:00,
2013-03-23 12:43:00,34.7,21.0,30.17,East,96,4.0,5.0,57,0.00,,CLR,0.00,250.00,VWS V14.00,2013-03-23 17:43:00,
2013-03-23 12:44:00,34.7,21.0,30.17,East,83,3.0,7.0,57,0.00,,CLR,0.00,258.00,VWS V14.00,2013-03-23 17:44:00,
2013-03-23 12:45:00,34.6,21.4,30.17,ENE,62,6.0,8.0,58,0.00,,CLR,0.00,260.00,VWS V14.00,2013-03-23 17:45:00,
2013-03-23 12:46:00,34.7,21.0,30.17,East,84,4.0,8.0,57,0.00,,CLR,0.00,271.00,VWS V14.00,2013-03-23 17:46:00,
2013-03-23 12:48:00,34.7,20.6,30.17,ENE,69,5.0,10.0,56,0.00,,CLR,0.00,197.00,VWS V14.00,2013-03-23 17:48:00,
2013-03-23 12:49:00,34.7,20.2,30.17,East,94,7.0,10.0,55,0.00,,CLR,0.00,195.00,VWS V14.00,2013-03-23 17:49:00,
2013-03-23 12:50:00,34.5,20.9,30.17,East,94,6.0,10.0,57,0.00,,CLR,0.00,206.00,VWS V14.00,2013-03-23 17:50:00,
2013-03-23 12:52:00,34.4,20.8,30.17,ENE,76,2.0,10.0,57,0.00,,CLR,0.00,225.00,VWS V14.00,2013-03-23 17:52:00,
2013-03-23 12:53:00,34.3,20.7,30.17,ESE,117,4.0,10.0,57,0.00,,CLR,0.00,200.00,VWS V14.00,2013-03-23 17:53:00,
2013-03-23 12:54:00,34.3,20.7,30.17,ENE,77,1.0,10.0,57,0.00,,CLR,0.00,236.00,VWS V14.00,2013-03-23 17:54:00,
2013-03-23 12:55:00,34.2,21.4,30.17,NE,45,1.0,2.0,59,0.00,,CLR,0.00,258.00,VWS V14.00,2013-03-23 17:55:00,
2013-03-23 12:57:00,34.2,21.4,30.17,NE,50,0.0,3.0,59,0.00,,CLR,0.00,213.00,VWS V14.00,2013-03-23 17:57:00,
2013-03-23 12:58:00,34.2,21.0,30.17,NE,51,2.0,5.0,58,0.00,,CLR,0.00,232.00,VWS V14.00,2013-03-23 17:58:00,
2013-03-23 12:59:00,34.3,21.5,30.17,East,89,1.0,2.0,59,0.00,,CLR,0.00,243.00,VWS V14.00,2013-03-23 17:59:00,
2013-03-23 13:00:00,34.3,21.5,30.17,East,88,2.0,5.0,59,0.00,,BKN100,0.00,243.00,VWS V14.00,2013-03-23 18:00:00,
2013-03-23 13:01:00,34.5,21.7,30.17,ESE,106,5.0,9.0,59,0.00,,CLR,0.00,248.00,VWS V14.00,2013-03-23 18:01:00,
2013-03-23 13:02:00,34.5,21.7,30.16,ENE,69,3.0,9.0,59,0.00,,CLR,0.00,223.00,VWS V14.00,2013-03-23 18:02:00,
2013-03-23 13:03:00,34.5,21.7,30.16,East,97,7.0,9.0,59,0.00,,CLR,0.00,220.00,VWS V14.00,2013-03-23 18:03:00,
2013-03-23 13:04:00,34.6,21.8,30.16,ENE,58,3.0,7.0,59,0.00,,CLR,0.00,209.00,VWS V14.00,2013-03-23 18:04:00,
2013-03-23 13:05:00,34.6,21.8,30.16,NE,44,6.0,9.0,59,0.00,,BKN100,0.00,209.00,VWS V14.00,2013-03-23 18:05:00,
2013-03-23 13:07:00,34.6,21.0,30.16,ESE,114,1.0,8.0,57,0.00,,CLR,0.00,211.00,VWS V14.00,2013-03-23 18:07:00,
2013-03-23 13:08:00,34.6,21.0,30.16,ENE,63,1.0,8.0,57,0.00,,CLR,0.00,227.00,VWS V14.00,2013-03-23 18:08:00,
2013-03-23 13:09:00,34.6,21.4,30.16,East,90,7.0,7.0,58,0.00,,CLR,0.00,221.00,VWS V14.00,2013-03-23 18:09:00,
2013-03-23 13:10:00,34.6,21.4,30.16,ENE,76,5.0,8.0,58,0.00,,BKN100,0.00,221.00,VWS V14.00,2013-03-23 18:10:00,
2013-03-23 13:12:00,34.7,21.9,30.16,ENE,67,6.0,8.0,59,0.00,,CLR,0.00,202.00,VWS V14.00,2013-03-23 18:12:00,
2013-03-23 13:13:00,34.7,21.5,30.16,ENE,77,2.0,8.0,58,0.00,,CLR,0.00,181.00,VWS V14.00,2013-03-23 18:13:00,
2013-03-23 13:14:00,34.7,21.5,30.16,East,80,6.0,8.0,58,0.00,,CLR,0.00,227.00,VWS V14.00,2013-03-23 18:14:00,
2013-03-23 13:15:00,34.7,21.0,30.16,East,90,5.0,8.0,57,0.00,,BKN100,0.00,227.00,VWS V14.00,2013-03-23 18:15:00,
2013-03-23 13:17:00,34.6,21.0,30.15,ESE,110,5.0,8.0,57,0.00,,CLR,0.00,236.00,VWS V14.00,2013-03-23 18:17:00,
2013-03-23 13:18:00,34.6,20.5,30.15,East,89,5.0,8.0,56,0.00,,CLR,0.00,225.00,VWS V14.00,2013-03-23 18:18:00,
2013-03-23 13:19:00,34.6,20.5,30.15,ENE,69,5.0,9.0,56,0.00,,CLR,0.00,211.00,VWS V14.00,2013-03-23 18:19:00,
2013-03-23 13:20:00,34.6,20.5,30.15,East,95,9.0,9.0,56,0.00,,BKN100,0.00,211.00,VWS V14.00,2013-03-23 18:20:00,
2013-03-23 13:22:00,34.6,20.5,30.15,ENE,70,3.0,9.0,56,0.00,,CLR,0.00,241.00,VWS V14.00,2013-03-23 18:22:00,
2013-03-23 13:23:00,34.7,20.6,30.15,ENE,67,0.0,9.0,56,0.00,,CLR,0.00,216.00,VWS V14.00,2013-03-23 18:23:00,
2013-03-23 13:25:00,34.7,20.6,30.15,East,84,2.0,4.0,56,0.00,,CLR,0.00,225.00,VWS V14.00,2013-03-23 18:25:00,
2013-03-23 13:27:00,34.9,21.2,30.15,NNE,32,4.0,6.0,57,0.00,,CLR,0.00,260.00,VWS V14.00,2013-03-23 18:27:00,
2013-03-23 13:28:00,35.1,21.4,30.15,ENE,57,6.0,7.0,57,0.00,,CLR,0.00,190.00,VWS V14.00,2013-03-23 18:28:00,
2013-03-23 13:30:00,35.0,20.9,30.15,NE,52,6.0,6.0,56,0.00,,CLR,0.00,183.00,VWS V14.00,2013-03-23 18:30:00,
2013-03-23 13:32:00,35.1,21.0,30.14,East,82,3.0,7.0,56,0.00,,CLR,0.00,176.00,VWS V14.00,2013-03-23 18:32:00,
2013-03-23 13:33:00,35.1,21.0,30.14,East,81,2.0,7.0,56,0.00,,CLR,0.00,176.00,VWS V14.00,2013-03-23 18:33:00,
2013-03-23 13:35:00,35.0,20.9,30.14,East,99,5.0,7.0,56,0.00,,CLR,0.00,162.00,VWS V14.00,2013-03-23 18:35:00,
2013-03-23 13:37:00,34.8,20.7,30.14,NE,51,5.0,9.0,56,0.00,,CLR,0.00,160.00,VWS V14.00,2013-03-23 18:37:00,
2013-03-23 13:38:00,34.8,20.7,30.14,ENE,74,6.0,9.0,56,0.00,,CLR,0.00,148.00,VWS V14.00,2013-03-23 18:38:00,
2013-03-23 13:39:00,34.8,21.1,30.14,East,79,5.0,9.0,57,0.00,,CLR,0.00,153.00,VWS V14.00,2013-03-23 18:39:00,
2013-03-23 13:40:00,34.8,20.7,30.13,East,95,6.0,7.0,56,0.00,,CLR,0.00,153.00,VWS V14.00,2013-03-23 18:40:00,
2013-03-23 13:42:00,34.7,20.2,30.13,ENE,76,3.0,7.0,55,0.00,,CLR,0.00,167.00,VWS V14.00,2013-03-23 18:42:00,
2013-03-23 13:43:00,34.7,20.2,30.13,East,99,4.0,7.0,55,0.00,,CLR,0.00,167.00,VWS V14.00,2013-03-23 18:43:00,
2013-03-23 13:44:00,34.7,20.2,30.13,NE,49,7.0,7.0,55,0.00,,CLR,0.00,246.00,VWS V14.00,2013-03-23 18:44:00,
2013-03-23 13:45:00,34.7,20.2,30.13,NE,55,3.0,7.0,55,0.00,,BKN100,0.00,246.00,VWS V14.00,2013-03-23 18:45:00,
2013-03-23 13:47:00,35.0,21.3,30.13,East,88,6.0,8.0,57,0.00,,CLR,0.00,390.00,VWS V14.00,2013-03-23 18:47:00,
2013-03-23 13:48:00,35.1,21.4,30.13,East,91,7.0,9.0,57,0.00,,CLR,0.00,390.00,VWS V14.00,2013-03-23 18:48:00,
2013-03-23 13:49:00,35.1,21.0,30.13,NE,46,5.0,9.0,56,0.00,,CLR,0.00,392.00,VWS V14.00,2013-03-23 18:49:00,
2013-03-23 13:50:00,35.1,21.0,30.13,NE,45,5.0,9.0,56,0.00,,BKN100,0.00,392.00,VWS V14.00,2013-03-23 18:50:00,
2013-03-23 13:53:00,35.4,21.3,30.12,ESE,108,6.0,11.0,56,0.00,,CLR,0.00,522.00,VWS V14.00,2013-03-23 18:53:00,
2013-03-23 13:54:00,35.5,21.4,30.12,ENE,61,3.0,11.0,56,0.00,,CLR,0.00,485.00,VWS V14.00,2013-03-23 18:54:00,
2013-03-23 13:55:00,35.5,21.4,30.12,ENE,61,2.0,11.0,56,0.00,,BKN100,0.00,485.00,VWS V14.00,2013-03-23 18:55:00,
2013-03-23 13:58:00,36.0,21.4,30.12,ENE,78,1.0,11.0,55,0.00,,CLR,0.00,636.00,VWS V14.00,2013-03-23 18:58:00,
2013-03-23 13:59:00,36.1,21.9,30.12,NNE,18,4.0,11.0,56,0.00,,CLR,0.00,466.00,VWS V14.00,2013-03-23 18:59:00,
2013-03-23 14:00:00,36.1,21.9,30.12,NNE,18,2.0,11.0,56,0.00,,OVC015,0.00,466.00,VWS V14.00,2013-03-23 19:00:00,
2013-03-23 14:03:00,36.5,21.5,30.12,East,86,6.0,12.0,54,0.00,,CLR,0.00,615.00,VWS V14.00,2013-03-23 19:03:00,
2013-03-23 14:04:00,36.5,21.5,30.12,ENE,67,3.0,3.0,54,0.00,,CLR,0.00,297.00,VWS V14.00,2013-03-23 19:04:00,
2013-03-23 14:05:00,36.5,21.5,30.12,ENE,67,3.0,12.0,54,0.00,,BKN100,0.00,297.00,VWS V14.00,2013-03-23 19:05:00,
2013-03-23 14:08:00,36.4,22.2,30.12,East,82,6.0,12.0,56,0.00,,CLR,0.00,371.00,VWS V14.00,2013-03-23 19:08:00,
2013-03-23 14:09:00,36.4,21.8,30.12,ENE,69,3.0,4.0,55,0.00,,CLR,0.00,371.00,VWS V14.00,2013-03-23 19:09:00,
2013-03-23 14:10:00,36.4,22.2,30.12,ENE,67,4.0,12.0,56,0.00,,BKN100,0.00,371.00,VWS V14.00,2013-03-23 19:10:00,
2013-03-23 14:13:00,36.5,21.5,30.12,NE,42,8.0,13.0,54,0.00,,CLR,0.00,371.00,VWS V14.00,2013-03-23 19:13:00,
2013-03-23 14:14:00,36.5,21.5,30.12,NNW,346,4.0,13.0,54,0.00,,CLR,0.00,371.00,VWS V14.00,2013-03-23 19:14:00,
2013-03-23 14:15:00,36.5,21.5,30.12,NNW,346,4.0,13.0,54,0.00,,BKN100,0.00,371.00,VWS V14.00,2013-03-23 19:15:00,
2013-03-23 14:18:00,36.6,22.4,30.11,NNW,344,8.0,11.0,56,0.00,,CLR,0.00,429.00,VWS V14.00,2013-03-23 19:18:00,
2013-03-23 14:19:00,36.6,22.4,30.11,North,360,6.0,7.0,56,0.00,,CLR,0.00,564.00,VWS V14.00,2013-03-23 19:19:00,
2013-03-23 14:20:00,36.6,22.4,30.11,North,355,7.0,11.0,56,0.00,,BKN100,0.00,564.00,VWS V14.00,2013-03-23 19:20:00,
2013-03-23 14:23:00,37.1,21.6,30.11,NNW,345,6.0,11.0,53,0.00,,CLR,0.00,510.00,VWS V14.00,2013-03-23 19:23:00,
2013-03-23 14:24:00,37.1,21.6,30.11,NNE,30,5.0,5.0,53,0.00,,CLR,0.00,473.00,VWS V14.00,2013-03-23 19:24:00,
2013-03-23 14:25:00,37.1,21.6,30.11,ENE,63,3.0,11.0,53,0.00,,BKN100,0.00,473.00,VWS V14.00,2013-03-23 19:25:00,
2013-03-23 14:29:00,37.3,21.3,30.10,NE,37,6.0,9.0,52,0.00,,CLR,0.00,443.00,VWS V14.00,2013-03-23 19:29:00,
2013-03-23 14:30:00,37.2,21.2,30.10,East,81,4.0,10.0,52,0.00,,CLR,0.00,512.00,VWS V14.00,2013-03-23 19:30:00,
2013-03-23 14:34:00,37.1,22.4,30.10,NE,44,4.0,4.0,55,0.00,,CLR,0.00,575.00,VWS V14.00,2013-03-23 19:34:00,
2013-03-23 14:35:00,37.1,22.9,30.10,NNE,25,5.0,7.0,56,0.00,,CLR,0.00,575.00,VWS V14.00,2013-03-23 19:35:00,
2013-03-23 14:39:00,37.3,23.1,30.10,NNE,30,8.0,11.0,56,0.00,,CLR,0.00,397.00,VWS V14.00,2013-03-23 19:39:00,
2013-03-23 14:40:00,37.3,22.6,30.10,North,9,4.0,11.0,55,0.00,,CLR,0.00,397.00,VWS V14.00,2013-03-23 19:40:00,
2013-03-23 14:44:00,37.3,21.8,30.10,NE,54,11.0,11.0,53,0.00,,CLR,0.00,299.00,VWS V14.00,2013-03-23 19:44:00,
2013-03-23 14:45:00,37.2,20.8,30.10,North,5,6.0,11.0,51,0.00,,CLR,0.00,299.00,VWS V14.00,2013-03-23 19:45:00,
2013-03-23 14:46:00,37.2,20.3,30.10,NNE,22,6.0,11.0,50,0.00,,CLR,0.00,269.00,VWS V14.00,2013-03-23 19:46:00,
2013-03-23 14:49:00,37.1,20.7,30.10,NE,36,3.0,5.0,51,0.00,,CLR,0.00,279.00,VWS V14.00,2013-03-23 19:49:00,
2013-03-23 14:50:00,37.1,21.6,30.10,NE,34,2.0,6.0,53,0.00,,CLR,0.00,332.00,VWS V14.00,2013-03-23 19:50:00,
2013-03-23 14:52:00,37.1,22.0,30.10,NE,49,5.0,7.0,54,0.00,,CLR,0.00,257.00,VWS V14.00,2013-03-23 19:52:00,
2013-03-23 14:54:00,37.0,22.8,30.10,NNE,14,9.0,9.0,56,0.00,,CLR,0.00,178.00,VWS V14.00,2013-03-23 19:54:00,
2013-03-23 14:55:00,36.9,22.3,30.10,NNE,31,5.0,10.0,55,0.00,,CLR,0.00,199.00,VWS V14.00,2013-03-23 19:55:00,
2013-03-23 14:57:00,36.9,21.4,30.10,NNE,22,4.0,10.0,53,0.00,,CLR,0.00,190.00,VWS V14.00,2013-03-23 19:57:00,
2013-03-23 14:59:00,36.8,20.8,30.09,NNW,337,4.0,5.0,52,0.00,,CLR,0.00,149.00,VWS V14.00,2013-03-23 19:59:00,
2013-03-23 15:00:00,36.8,20.8,30.09,North,5,3.0,5.0,52,0.00,,CLR,0.00,171.00,VWS V14.00,2013-03-23 20:00:00,
2013-03-23 15:02:00,36.9,22.3,30.09,NE,36,4.0,10.0,55,0.00,,CLR,0.00,144.00,VWS V14.00,2013-03-23 20:02:00,
2013-03-23 15:05:00,36.9,21.8,30.09,NE,38,3.0,10.0,54,0.00,,CLR,0.00,132.00,VWS V14.00,2013-03-23 20:05:00,
2013-03-23 15:07:00,36.9,22.7,30.09,North,355,9.0,10.0,56,0.00,,CLR,0.00,137.00,VWS V14.00,2013-03-23 20:07:00,
2013-03-23 15:10:00,36.9,23.1,30.09,NE,43,5.0,6.0,57,0.00,,CLR,0.00,116.00,VWS V14.00,2013-03-23 20:10:00,
2013-03-23 15:13:00,36.9,23.1,30.09,NE,41,5.0,7.0,57,0.00,,CLR,0.00,127.00,VWS V14.00,2013-03-23 20:13:00,
2013-03-23 15:15:00,36.8,23.4,30.09,North,355,1.0,5.0,58,0.00,,CLR,0.00,116.00,VWS V14.00,2013-03-23 20:15:00,
2013-03-23 15:16:00,36.9,23.9,30.09,NNE,25,3.0,5.0,59,0.00,,CLR,0.00,118.00,VWS V14.00,2013-03-23 20:16:00,
2013-03-23 15:18:00,36.9,23.1,30.09,NE,45,4.0,6.0,57,0.00,,CLR,0.00,116.00,VWS V14.00,2013-03-23 20:18:00,
2013-03-23 15:20:00,36.9,22.7,30.09,East,86,3.0,7.0,56,0.00,,CLR,0.00,84.00,VWS V14.00,2013-03-23 20:20:00,
2013-03-23 15:21:00,36.8,22.6,30.09,ENE,72,3.0,7.0,56,0.00,,CLR,0.00,98.00,VWS V14.00,2013-03-23 20:21:00,
2013-03-23 15:23:00,36.6,22.0,30.09,NE,40,5.0,8.0,55,0.00,,CLR,0.00,86.00,VWS V14.00,2013-03-23 20:23:00,
2013-03-23 15:25:00,36.4,22.6,30.08,NE,54,4.0,8.0,57,0.00,,CLR,0.00,77.00,VWS V14.00,2013-03-23 20:25:00,
2013-03-23 15:27:00,36.3,22.5,30.08,East,83,4.0,8.0,57,0.00,,CLR,0.00,88.00,VWS V14.00,2013-03-23 20:27:00,
2013-03-23 15:28:00,36.3,22.1,30.08,NE,47,8.0,8.0,56,0.00,,CLR,0.00,83.00,VWS V14.00,2013-03-23 20:28:00,
2013-03-23 15:30:00,36.2,22.0,30.08,ENE,63,6.0,7.0,56,0.00,,CLR,0.00,90.00,VWS V14.00,2013-03-23 20:30:00,
2013-03-23 15:32:00,36.2,22.5,30.08,ENE,65,3.0,7.0,57,0.00,,CLR,0.00,72.00,VWS V14.00,2013-03-23 20:32:00,
2013-03-23 15:33:00,36.2,22.5,30.08,NE,52,3.0,12.0,57,0.00,,CLR,0.00,74.00,VWS V14.00,2013-03-23 20:33:00,
2013-03-23 15:35:00,36.1,22.8,30.08,NE,44,4.0,6.0,58,0.00,,CLR,0.00,83.00,VWS V14.00,2013-03-23 20:35:00,
2013-03-23 15:36:00,36.1,22.8,30.08,NE,41,2.0,6.0,58,0.00,,CLR,0.00,83.00,VWS V14.00,2013-03-23 20:36:00,
2013-03-23 15:37:00,36.1,22.8,30.08,ENE,57,2.0,6.0,58,0.00,,CLR,0.00,91.00,VWS V14.00,2013-03-23 20:37:00,
2013-03-23 15:39:00,36.2,23.3,30.08,NE,53,4.0,6.0,59,0.00,,CLR,0.00,88.00,VWS V14.00,2013-03-23 20:39:00,
2013-03-23 15:40:00,36.2,23.3,30.08,NE,53,4.0,6.0,59,0.00,,BKN100,0.00,88.00,VWS V14.00,2013-03-23 20:40:00,
2013-03-23 15:41:00,36.2,22.9,30.07,East,89,6.0,8.0,58,0.00,,CLR,0.00,86.00,VWS V14.00,2013-03-23 20:41:00,
2013-03-23 15:43:00,36.2,22.9,30.07,NE,50,3.0,9.0,58,0.00,,CLR,0.00,97.00,VWS V14.00,2013-03-23 20:43:00,
2013-03-23 15:44:00,36.3,23.4,30.07,ENE,58,0.0,2.0,59,0.00,,CLR,0.00,109.00,VWS V14.00,2013-03-23 20:44:00,
2013-03-23 15:45:00,36.3,23.4,30.07,ENE,58,2.0,9.0,59,0.00,,BKN100,0.00,109.00,VWS V14.00,2013-03-23 20:45:00,
2013-03-23 15:46:00,36.4,23.9,30.07,East,85,2.0,5.0,60,0.00,,CLR,0.00,107.00,VWS V14.00,2013-03-23 20:46:00,
2013-03-23 15:47:00,36.5,24.0,30.07,ENE,57,5.0,7.0,60,0.00,,CLR,0.00,104.00,VWS V14.00,2013-03-23 20:47:00,
2013-03-23 15:48:00,36.5,23.5,30.07,ENE,74,6.0,7.0,59,0.00,,CLR,0.00,104.00,VWS V14.00,2013-03-23 20:48:00,
2013-03-23 15:49:00,36.5,23.5,30.07,NNE,27,2.0,4.0,59,0.00,,CLR,0.00,95.00,VWS V14.00,2013-03-23 20:49:00,
2013-03-23 15:50:00,36.5,23.5,30.07,North,5,4.0,10.0,59,0.00,,BKN100,0.00,95.00,VWS V14.00,2013-03-23 20:50:00,
2013-03-23 15:51:00,36.6,23.6,30.08,North,5,4.0,6.0,59,0.00,,CLR,0.00,105.00,VWS V14.00,2013-03-23 20:51:00,
2013-03-23 15:52:00,36.6,23.6,30.08,NE,42,6.0,9.0,59,0.00,,CLR,0.00,125.00,VWS V14.00,2013-03-23 20:52:00,
2013-03-23 15:53:00,36.7,23.7,30.07,NE,40,3.0,9.0,59,0.00,,CLR,0.00,125.00,VWS V14.00,2013-03-23 20:53:00,
2013-03-23 15:54:00,36.8,23.4,30.07,NE,35,8.0,8.0,58,0.00,,CLR,0.00,114.00,VWS V14.00,2013-03-23 20:54:00,
2013-03-23 15:55:00,36.8,23.4,30.07,ENE,72,2.0,9.0,58,0.00,,BKN100,0.00,114.00,VWS V14.00,2013-03-23 20:55:00,
2013-03-23 15:57:00,36.9,23.5,30.08,East,86,2.0,8.0,58,0.00,,CLR,0.00,113.00,VWS V14.00,2013-03-23 20:57:00,
2013-03-23 15:59:00,36.8,23.0,30.08,East,84,7.0,10.0,57,0.00,,CLR,0.00,113.00,VWS V14.00,2013-03-23 20:59:00,
2013-03-23 16:00:00,36.9,23.5,30.07,ENE,75,8.0,12.0,58,0.00,,BKN100,0.00,113.00,VWS V14.00,2013-03-23 21:00:00,
2013-03-23 16:02:00,36.7,23.7,30.08,East,90,2.0,10.0,59,0.00,,CLR,0.00,128.00,VWS V14.00,2013-03-23 21:02:00,
2013-03-23 16:04:00,36.8,23.8,30.08,NE,49,3.0,6.0,59,0.00,,CLR,0.00,120.00,VWS V14.00,2013-03-23 21:04:00,
2013-03-23 16:05:00,36.8,23.8,30.08,ENE,63,5.0,10.0,59,0.00,,BKN100,0.00,120.00,VWS V14.00,2013-03-23 21:05:00,
2013-03-23 16:07:00,36.7,23.3,30.08,North,5,4.0,7.0,58,0.00,,CLR,0.00,153.00,VWS V14.00,2013-03-23 21:07:00,
2013-03-23 16:09:00,36.8,23.8,30.08,ENE,59,7.0,11.0,59,0.00,,CLR,0.00,146.00,VWS V14.00,2013-03-23 21:09:00,
2013-03-23 16:10:00,36.8,23.8,30.08,ENE,61,7.0,7.0,59,0.00,,BKN100,0.00,146.00,VWS V14.00,2013-03-23 21:10:00,
2013-03-23 16:12:00,36.9,23.5,30.08,NNE,13,2.0,11.0,58,0.00,,CLR,0.00,167.00,VWS V14.00,2013-03-23 21:12:00,
2013-03-23 16:14:00,37.0,24.0,30.08,NE,53,7.0,7.0,59,0.00,,CLR,0.00,146.00,VWS V14.00,2013-03-23 21:14:00,
2013-03-23 16:15:00,37.0,24.0,30.08,NE,48,5.0,11.0,59,0.00,,BKN100,0.00,146.00,VWS V14.00,2013-03-23 21:15:00,
2013-03-23 16:17:00,37.0,23.6,30.08,NE,44,3.0,8.0,58,0.00,,CLR,0.00,134.00,VWS V14.00,2013-03-23 21:17:00,
2013-03-23 16:18:00,37.0,23.6,30.08,NE,50,3.0,8.0,58,0.00,,CLR,0.00,134.00,VWS V14.00,2013-03-23 21:18:00,
2013-03-23 16:19:00,37.0,23.6,30.07,ENE,65,4.0,6.0,58,0.00,,CLR,0.00,125.00,VWS V14.00,2013-03-23 21:19:00,
2013-03-23 16:20:00,37.0,23.6,30.07,East,82,2.0,6.0,58,0.00,,CLR,0.00,141.00,VWS V14.00,2013-03-23 21:20:00,
2013-03-23 16:23:00,37.0,24.0,30.07,NE,41,6.0,7.0,59,0.00,,CLR,0.00,132.00,VWS V14.00,2013-03-23 21:23:00,
2013-03-23 16:24:00,37.0,23.6,30.07,NE,49,2.0,2.0,58,0.00,,CLR,0.00,128.00,VWS V14.00,2013-03-23 21:24:00,
2013-03-23 16:25:00,37.0,24.0,30.07,NE,44,7.0,10.0,59,0.00,,CLR,0.00,123.00,VWS V14.00,2013-03-23 21:25:00,
2013-03-23 16:28:00,37.0,23.6,30.07,ENE,61,6.0,10.0,58,0.00,,CLR,0.00,118.00,VWS V14.00,2013-03-23 21:28:00,
2013-03-23 16:29:00,37.0,23.6,30.07,NE,43,7.0,8.0,58,0.00,,CLR,0.00,121.00,VWS V14.00,2013-03-23 21:29:00,
2013-03-23 16:30:00,36.9,23.9,30.07,ENE,65,3.0,8.0,59,0.00,,CLR,0.00,135.00,VWS V14.00,2013-03-23 21:30:00,
2013-03-23 16:33:00,36.9,23.9,30.06,NE,43,2.0,8.0,59,0.00,,CLR,0.00,149.00,VWS V14.00,2013-03-23 21:33:00,
2013-03-23 16:34:00,36.9,23.9,30.06,East,84,3.0,3.0,59,0.00,,CLR,0.00,118.00,VWS V14.00,2013-03-23 21:34:00,
2013-03-23 16:35:00,36.9,23.9,30.06,NE,44,2.0,5.0,59,0.00,,CLR,0.00,151.00,VWS V14.00,2013-03-23 21:35:00,
2013-03-23 16:38:00,37.0,24.0,30.06,ENE,58,4.0,5.0,59,0.00,,CLR,0.00,118.00,VWS V14.00,2013-03-23 21:38:00,
2013-03-23 16:39:00,37.0,24.0,30.06,North,9,3.0,3.0,59,0.00,,CLR,0.00,144.00,VWS V14.00,2013-03-23 21:39:00,
2013-03-23 16:40:00,37.0,24.0,30.06,NE,43,2.0,5.0,59,0.00,,CLR,0.00,116.00,VWS V14.00,2013-03-23 21:40:00,
2013-03-23 16:44:00,37.2,23.8,30.06,NE,54,8.0,8.0,58,0.00,,CLR,0.00,125.00,VWS V14.00,2013-03-23 21:44:00,
2013-03-23 16:45:00,37.2,23.8,30.06,NE,42,3.0,10.0,58,0.00,,CLR,0.00,130.00,VWS V14.00,2013-03-23 21:45:00,
2013-03-23 16:46:00,37.2,23.8,30.06,NE,51,6.0,10.0,58,0.00,,CLR,0.00,118.00,VWS V14.00,2013-03-23 21:46:00,
2013-03-23 16:49:00,37.1,23.3,30.06,ENE,62,3.0,3.0,57,0.00,,CLR,0.00,100.00,VWS V14.00,2013-03-23 21:49:00,
2013-03-23 16:50:00,37.1,23.3,30.06,ENE,58,3.0,10.0,57,0.00,,BKN100,0.00,102.00,VWS V14.00,2013-03-23 21:50:00,
2013-03-23 16:51:00,36.9,23.5,30.06,NNE,28,3.0,7.0,58,0.00,,CLR,0.00,107.00,VWS V14.00,2013-03-23 21:51:00,
2013-03-23 16:54:00,36.9,24.3,30.06,NE,44,4.0,8.0,60,0.00,,CLR,0.00,88.00,VWS V14.00,2013-03-23 21:54:00,
2013-03-23 16:55:00,36.9,24.3,30.06,ENE,72,4.0,7.0,60,0.00,,BKN100,0.00,90.00,VWS V14.00,2013-03-23 21:55:00,
2013-03-23 16:56:00,37.0,24.8,30.06,NNE,12,2.0,8.0,61,0.00,,CLR,0.00,83.00,VWS V14.00,2013-03-23 21:56:00,
2013-03-23 16:57:00,37.0,24.8,30.06,East,95,5.0,8.0,61,0.00,,CLR,0.00,81.00,VWS V14.00,2013-03-23 21:57:00,
2013-03-23 16:59:00,37.0,24.8,30.06,ENE,63,1.0,4.0,61,0.00,,CLR,0.00,74.00,VWS V14.00,2013-03-23 21:59:00,
2013-03-23 17:00:00,37.0,24.8,30.06,NE,34,2.0,7.0,61,0.00,,CLR,0.00,74.00,VWS V14.00,2013-03-23 22:00:00,
2013-03-23 17:01:00,37.0,24.4,30.06,East,100,7.0,7.0,60,0.00,,CLR,0.00,63.00,VWS V14.00,2013-03-23 22:01:00,
2013-03-23 17:02:00,36.9,24.3,30.06,NE,50,6.0,11.0,60,0.00,,CLR,0.00,63.00,VWS V14.00,2013-03-23 22:02:00,
2013-03-23 17:04:00,36.9,24.3,30.06,NNE,28,4.0,6.0,60,0.00,,CLR,0.00,67.00,VWS V14.00,2013-03-23 22:04:00,
2013-03-23 17:05:00,36.8,23.8,30.06,NE,49,4.0,6.0,59,0.00,,CLR,0.00,69.00,VWS V14.00,2013-03-23 22:05:00,
2013-03-23 17:06:00,36.8,23.4,30.06,NNE,22,4.0,9.0,58,0.00,,CLR,0.00,67.00,VWS V14.00,2013-03-23 22:06:00,
2013-03-23 17:07:00,36.8,23.8,30.06,ENE,76,5.0,9.0,59,0.00,,CLR,0.00,67.00,VWS V14.00,2013-03-23 22:07:00,
2013-03-23 17:09:00,36.7,23.7,30.06,NNE,19,1.0,3.0,59,0.00,,CLR,0.00,58.00,VWS V14.00,2013-03-23 22:09:00,
2013-03-23 17:10:00,36.8,23.8,30.06,ENE,60,1.0,9.0,59,0.00,,BKN100,0.00,63.00,VWS V14.00,2013-03-23 22:10:00,
2013-03-23 17:12:00,36.7,24.1,30.06,NE,36,2.0,7.0,60,0.00,,CLR,0.00,60.00,VWS V14.00,2013-03-23 22:12:00,
2013-03-23 17:14:00,36.6,23.2,30.07,NNE,18,1.0,5.0,58,0.00,,CLR,0.00,49.00,VWS V14.00,2013-03-23 22:14:00,
2013-03-23 17:15:00,36.6,23.6,30.06,NE,49,4.0,9.0,59,0.00,,BKN100,0.00,49.00,VWS V14.00,2013-03-23 22:15:00,
2013-03-23 17:17:00,36.6,23.6,30.07,North,9,8.0,10.0,59,0.00,,CLR,0.00,46.00,VWS V14.00,2013-03-23 22:17:00,
2013-03-23 17:18:00,36.6,23.6,30.07,NNE,27,7.0,10.0,59,0.00,,CLR,0.00,44.00,VWS V14.00,2013-03-23 22:18:00,
2013-03-23 17:19:00,36.5,23.5,30.07,North,360,4.0,4.0,59,0.00,,CLR,0.00,47.00,VWS V14.00,2013-03-23 22:19:00,
2013-03-23 17:20:00,36.6,23.6,30.07,North,360,3.0,10.0,59,0.00,,BKN100,0.00,47.00,VWS V14.00,2013-03-23 22:20:00,
2013-03-23 17:22:00,36.5,24.0,30.07,NNE,28,5.0,7.0,60,0.00,,BKN060,0.00,40.00,VWS V14.00,2013-03-23 22:22:00,
2013-03-23 17:23:00,36.5,24.0,30.07,NE,34,3.0,7.0,60,0.00,,BKN060,0.00,42.00,VWS V14.00,2013-03-23 22:23:00,
2013-03-23 17:25:00,36.4,23.9,30.07,NNE,12,3.0,4.0,60,0.00,,BKN060,0.00,44.00,VWS V14.00,2013-03-23 22:25:00,
2013-03-23 17:27:00,36.4,23.9,30.08,NNE,22,3.0,6.0,60,0.00,,BKN060,0.00,42.00,VWS V14.00,2013-03-23 22:27:00,
2013-03-23 17:28:00,36.4,23.9,30.07,NNE,19,2.0,6.0,60,0.00,,BKN060,0.00,40.00,VWS V14.00,2013-03-23 22:28:00,
2013-03-23 17:30:00,36.4,23.9,30.07,NE,40,5.0,6.0,60,0.00,,BKN060,0.00,39.00,VWS V14.00,2013-03-23 22:30:00,
2013-03-23 17:32:00,36.3,23.8,30.08,East,97,4.0,7.0,60,0.00,,BKN060,0.00,37.00,VWS V14.00,2013-03-23 22:32:00,
2013-03-23 17:33:00,36.3,23.8,30.08,NE,34,6.0,7.0,60,0.00,,BKN060,0.00,35.00,VWS V14.00,2013-03-23 22:33:00,
2013-03-23 17:35:00,36.3,23.8,30.08,ENE,63,4.0,8.0,60,0.00,,BKN060,0.00,35.00,VWS V14.00,2013-03-23 22:35:00,
2013-03-23 17:37:00,36.2,23.7,30.08,ENE,65,2.0,8.0,60,0.00,,BKN060,0.00,33.00,VWS V14.00,2013-03-23 22:37:00,
2013-03-23 17:38:00,36.2,24.1,30.08,NE,43,7.0,8.0,61,0.00,,BKN060,0.00,26.00,VWS V14.00,2013-03-23 22:38:00,
2013-03-23 17:40:00,36.2,24.1,30.08,NE,47,3.0,5.0,61,0.00,,SCT046,0.00,30.00,VWS V14.00,2013-03-23 22:40:00,
2013-03-23 17:42:00,36.1,24.4,30.08,ENE,69,1.0,5.0,62,0.00,,SCT046,0.00,28.00,VWS V14.00,2013-03-23 22:42:00,
2013-03-23 17:43:00,36.1,24.4,30.08,East,80,3.0,5.0,62,0.00,,SCT046,0.00,26.00,VWS V14.00,2013-03-23 22:43:00,
2013-03-23 17:45:00,36.1,24.4,30.08,ENE,57,2.0,5.0,62,0.00,,BKN100,0.00,26.00,VWS V14.00,2013-03-23 22:45:00,
2013-03-23 17:46:00,36.0,23.9,30.08,NE,42,4.0,10.0,61,0.00,,SCT046,0.00,25.00,VWS V14.00,2013-03-23 22:46:00,
2013-03-23 17:48:00,36.0,23.9,30.08,NE,44,3.0,10.0,61,0.00,,SCT046,0.00,25.00,VWS V14.00,2013-03-23 22:48:00,
2013-03-23 17:49:00,35.9,23.8,30.08,NE,40,4.0,10.0,61,0.00,,SCT046,0.00,23.00,VWS V14.00,2013-03-23 22:49:00,
2013-03-23 17:50:00,35.9,23.8,30.08,NE,38,3.0,10.0,61,0.00,,BKN100,0.00,23.00,VWS V14.00,2013-03-23 22:50:00,
2013-03-23 17:52:00,35.9,23.8,30.08,NE,55,3.0,6.0,61,0.00,,SCT046,0.00,23.00,VWS V14.00,2013-03-23 22:52:00,
2013-03-23 17:53:00,35.9,24.2,30.08,NNE,30,6.0,6.0,62,0.00,,SCT046,0.00,23.00,VWS V14.00,2013-03-23 22:53:00,
2013-03-23 17:54:00,35.8,23.7,30.08,NNE,30,2.0,7.0,61,0.00,,SCT046,0.00,21.00,VWS V14.00,2013-03-23 22:54:00,
2013-03-23 17:55:00,35.8,23.7,30.08,NNE,30,2.0,7.0,61,0.00,,BKN100,0.00,21.00,VWS V14.00,2013-03-23 22:55:00,
2013-03-23 17:57:00,35.8,24.1,30.07,NE,42,2.0,5.0,62,0.00,,SCT046,0.00,21.00,VWS V14.00,2013-03-23 22:57:00,
2013-03-23 17:58:00,35.8,24.1,30.08,ENE,62,7.0,7.0,62,0.00,,SCT046,0.00,21.00,VWS V14.00,2013-03-23 22:58:00,
2013-03-23 17:59:00,35.8,24.1,30.08,NE,42,3.0,7.0,62,0.00,,SCT046,0.00,21.00,VWS V14.00,2013-03-23 22:59:00,
2013-03-23 18:00:00,35.8,24.1,30.08,NE,36,3.0,7.0,62,0.00,,BKN100,0.00,21.00,VWS V14.00,2013-03-23 23:00:00,
2013-03-23 18:02:00,35.7,24.4,30.08,NE,47,1.0,5.0,63,0.00,,SCT030,0.00,21.00,VWS V14.00,2013-03-23 23:02:00,
2013-03-23 18:03:00,35.7,24.7,30.08,NE,44,3.0,5.0,64,0.00,,SCT030,0.00,19.00,VWS V14.00,2013-03-23 23:03:00,
2013-03-23 18:04:00,35.7,24.7,30.08,NNE,16,3.0,3.0,64,0.00,,SCT030,0.00,21.00,VWS V14.00,2013-03-23 23:04:00,
2013-03-23 18:05:00,35.7,24.7,30.08,NNE,15,2.0,5.0,64,0.00,,BKN100,0.00,21.00,VWS V14.00,2013-03-23 23:05:00,
2013-03-23 18:07:00,35.7,25.1,30.08,NNE,27,3.0,4.0,65,0.00,,SCT030,0.00,23.00,VWS V14.00,2013-03-23 23:07:00,
2013-03-23 18:08:00,35.6,25.0,30.08,NE,55,2.0,4.0,65,0.00,,SCT030,0.00,23.00,VWS V14.00,2013-03-23 23:08:00,
2013-03-23 18:09:00,35.6,25.0,30.08,NE,55,0.0,4.0,65,0.00,,SCT030,0.00,23.00,VWS V14.00,2013-03-23 23:09:00,
2013-03-23 18:10:00,35.7,25.1,30.08,NNE,13,3.0,4.0,65,0.00,,BKN100,0.00,23.00,VWS V14.00,2013-03-23 23:10:00,
2013-03-23 18:12:00,35.6,25.0,30.08,NNE,13,3.0,5.0,65,0.00,,SCT030,0.00,23.00,VWS V14.00,2013-03-23 23:12:00,
2013-03-23 18:13:00,35.6,25.0,30.08,NNE,27,0.0,6.0,65,0.00,,SCT030,0.00,21.00,VWS V14.00,2013-03-23 23:13:00,
2013-03-23 18:14:00,35.6,25.0,30.08,NNE,28,2.0,6.0,65,0.00,,SCT030,0.00,23.00,VWS V14.00,2013-03-23 23:14:00,
2013-03-23 18:15:00,35.6,25.0,30.08,NNE,27,2.0,6.0,65,0.00,,BKN100,0.00,23.00,VWS V14.00,2013-03-23 23:15:00,
2013-03-23 18:17:00,35.6,25.4,30.08,NE,45,2.0,6.0,66,0.00,,SCT030,0.00,21.00,VWS V14.00,2013-03-23 23:17:00,
2013-03-23 18:18:00,35.6,25.4,30.08,ENE,57,4.0,6.0,66,0.00,,SCT030,0.00,21.00,VWS V14.00,2013-03-23 23:18:00,
2013-03-23 18:19:00,35.6,25.4,30.08,NE,55,1.0,6.0,66,0.00,,SCT030,0.00,19.00,VWS V14.00,2013-03-23 23:19:00,
2013-03-23 18:20:00,35.6,25.4,30.08,NE,55,1.0,6.0,66,0.00,,BKN100,0.00,19.00,VWS V14.00,2013-03-23 23:20:00,
2013-03-23 18:23:00,35.5,24.9,30.08,NE,37,3.0,7.0,65,0.00,,CLR,0.00,18.00,VWS V14.00,2013-03-23 23:23:00,
2013-03-23 18:24:00,35.5,24.9,30.08,NE,55,4.0,7.0,65,0.00,,CLR,0.00,18.00,VWS V14.00,2013-03-23 23:24:00,
2013-03-23 18:25:00,35.5,24.9,30.08,NE,47,2.0,7.0,65,0.00,,BKN100,0.00,16.00,VWS V14.00,2013-03-23 23:25:00,
2013-03-23 18:28:00,35.4,25.2,30.08,NE,49,3.0,6.0,66,0.00,,CLR,0.00,14.00,VWS V14.00,2013-03-23 23:28:00,
2013-03-23 18:29:00,35.4,25.2,30.08,NE,48,1.0,6.0,66,0.00,,CLR,0.00,14.00,VWS V14.00,2013-03-23 23:29:00,
2013-03-23 18:30:00,35.3,25.1,30.08,NE,47,3.0,4.0,66,0.00,,CLR,0.00,14.00,VWS V14.00,2013-03-23 23:30:00,
2013-03-23 18:33:00,35.3,25.1,30.08,ENE,61,3.0,5.0,66,0.00,,CLR,0.00,14.00,VWS V14.00,2013-03-23 23:33:00,
2013-03-23 18:34:00,35.3,25.1,30.08,NE,44,4.0,4.0,66,0.00,,CLR,0.00,14.00,VWS V14.00,2013-03-23 23:34:00,
2013-03-23 18:35:00,35.3,25.1,30.08,NE,40,3.0,7.0,66,0.00,,CLR,0.00,16.00,VWS V14.00,2013-03-23 23:35:00,
2013-03-23 18:38:00,35.2,25.0,30.08,NE,36,5.0,7.0,66,0.00,,CLR,0.00,16.00,VWS V14.00,2013-03-23 23:38:00,
2013-03-23 18:39:00,35.2,25.0,30.08,NE,38,3.0,5.0,66,0.00,,CLR,0.00,16.00,VWS V14.00,2013-03-23 23:39:00,
2013-03-23 18:40:00,35.2,25.0,30.09,North,5,1.0,5.0,66,0.00,,SCT034,0.00,16.00,VWS V14.00,2013-03-23 23:40:00,
2013-03-23 18:44:00,35.1,25.3,30.09,NE,44,2.0,5.0,67,0.00,,SCT034,0.00,16.00,VWS V14.00,2013-03-23 23:44:00,
2013-03-23 18:45:00,35.1,25.3,30.09,NE,46,0.0,2.0,67,0.00,,SCT034,0.00,16.00,VWS V14.00,2013-03-23 23:45:00,
2013-03-23 18:49:00,35.1,25.6,30.09,NE,34,3.0,3.0,68,0.00,,SCT034,0.00,14.00,VWS V14.00,2013-03-23 23:49:00,
2013-03-23 18:50:00,35.1,25.6,30.08,NE,34,1.0,5.0,68,0.00,,SCT034,0.00,14.00,VWS V14.00,2013-03-23 23:50:00,
2013-03-23 18:54:00,35.1,25.6,30.09,NNE,29,5.0,5.0,68,0.00,,SCT034,0.00,12.00,VWS V14.00,2013-03-23 23:54:00,
2013-03-23 18:55:00,35.1,25.6,30.09,NNE,16,1.0,5.0,68,0.00,,SCT034,0.00,12.00,VWS V14.00,2013-03-23 23:55:00,
2013-03-23 18:59:00,35.0,25.9,30.09,North,360,3.0,5.0,69,0.00,,SCT034,0.00,11.00,VWS V14.00,2013-03-23 23:59:00,
2013-03-23 19:00:00,35.0,25.9,30.09,North,360,3.0,3.0,69,0.00,,-RA,0.00,11.00,VWS V14.00,2013-03-24 00:00:00,
2013-03-23 19:04:00,35.0,26.2,30.09,NW,325,2.0,2.0,70,0.00,,-RA,0.00,9.00,VWS V14.00,2013-03-24 00:04:00,
2013-03-23 19:05:00,35.0,26.6,30.09,North,5,1.0,3.0,71,0.00,,-RA,0.00,9.00,VWS V14.00,2013-03-24 00:05:00,
2013-03-23 19:06:00,35.0,26.6,30.09,North,5,4.0,6.0,71,0.00,,-RA,0.00,9.00,VWS V14.00,2013-03-24 00:06:00,
2013-03-23 19:09:00,35.0,26.9,30.09,NNE,17,2.0,3.0,72,0.00,,-RA,0.00,7.00,VWS V14.00,2013-03-24 00:09:00,
2013-03-23 19:10:00,35.0,26.9,30.09,NNE,17,0.0,3.0,72,0.00,,-RA,0.00,7.00,VWS V14.00,2013-03-24 00:10:00,
2013-03-23 19:11:00,34.9,26.8,30.09,NE,46,4.0,4.0,72,0.00,,-RA,0.00,7.00,VWS V14.00,2013-03-24 00:11:00,
2013-03-23 19:14:00,34.9,26.8,30.09,NNE,15,1.0,2.0,72,0.00,,-RA,0.00,5.00,VWS V14.00,2013-03-24 00:14:00,
2013-03-23 19:15:00,34.9,27.1,30.09,NNE,16,0.0,2.0,73,0.00,,-RA,0.00,5.00,VWS V14.00,2013-03-24 00:15:00,
2013-03-23 19:16:00,34.8,27.0,30.09,NNE,15,1.0,3.0,73,0.00,,-RA,0.00,5.00,VWS V14.00,2013-03-24 00:16:00,
2013-03-23 19:19:00,34.8,26.7,30.09,NNE,16,0.0,2.0,72,0.00,,-RA,0.00,0.00,VWS V14.00,2013-03-24 00:19:00,
2013-03-23 19:20:00,34.8,26.7,30.09,NNE,17,2.0,2.0,72,0.00,,OVC017,0.00,0.00,VWS V14.00,2013-03-24 00:20:00,
2013-03-23 19:21:00,34.7,27.0,30.09,North,9,4.0,7.0,73,0.00,,OVC017,0.00,0.00,VWS V14.00,2013-03-24 00:21:00,
2013-03-23 19:24:00,34.7,26.6,30.09,North,355,7.0,7.0,72,0.00,,OVC017,0.00,0.00,VWS V14.00,2013-03-24 00:24:00,
2013-03-23 19:25:00,34.6,26.5,30.09,North,355,0.0,8.0,72,0.00,,OVC017,0.00,0.00,VWS V14.00,2013-03-24 00:25:00,
2013-03-23 19:26:00,34.6,26.5,30.09,North,355,1.0,8.0,72,0.00,,OVC017,0.00,0.00,VWS V14.00,2013-03-24 00:26:00,
2013-03-23 19:29:00,34.6,26.5,30.09,NNE,27,3.0,4.0,72,0.00,,OVC017,0.00,0.00,VWS V14.00,2013-03-24 00:29:00,
2013-03-23 19:30:00,34.5,26.4,30.09,North,360,4.0,4.0,72,0.00,,OVC017,0.00,0.00,VWS V14.00,2013-03-24 00:30:00,
2013-03-23 19:31:00,34.5,26.8,30.09,North,5,2.0,6.0,73,0.00,,OVC017,0.00,0.00,VWS V14.00,2013-03-24 00:31:00,
2013-03-23 19:32:00,34.5,26.8,30.09,NNE,15,5.0,6.0,73,0.00,,OVC017,0.00,0.00,VWS V14.00,2013-03-24 00:32:00,
2013-03-23 19:34:00,34.4,26.7,30.09,NNE,15,3.0,6.0,73,0.00,,OVC017,0.00,0.00,VWS V14.00,2013-03-24 00:34:00,
2013-03-23 19:35:00,34.4,26.7,30.09,NNE,28,4.0,6.0,73,0.00,,OVC017,0.00,0.00,VWS V14.00,2013-03-24 00:35:00,
2013-03-23 19:37:00,34.4,26.7,30.09,NNE,19,4.0,6.0,73,0.00,,OVC017,0.00,0.00,VWS V14.00,2013-03-24 00:37:00,
2013-03-23 19:39:00,34.3,26.6,30.09,NE,45,2.0,4.0,73,0.00,,OVC017,0.00,0.00,VWS V14.00,2013-03-24 00:39:00,
2013-03-23 19:40:00,34.3,26.6,30.09,North,5,7.0,7.0,73,0.00,,OVC019,0.00,0.00,VWS V14.00,2013-03-24 00:40:00,
2013-03-23 19:42:00,34.3,26.6,30.09,North,351,0.0,7.0,73,0.00,,OVC019,0.00,0.00,VWS V14.00,2013-03-24 00:42:00,
2013-03-23 19:45:00,34.3,26.9,30.09,NNE,28,1.0,4.0,74,0.00,,OVC019,0.00,0.00,VWS V14.00,2013-03-24 00:45:00,
2013-03-23 19:47:00,34.3,26.9,30.09,NNE,22,3.0,6.0,74,0.00,,OVC019,0.00,0.00,VWS V14.00,2013-03-24 00:47:00,
2013-03-23 19:50:00,34.2,26.8,30.09,North,9,0.0,4.0,74,0.00,,OVC019,0.00,0.00,VWS V14.00,2013-03-24 00:50:00,
2013-03-23 19:52:00,34.2,26.8,30.09,North,9,3.0,5.0,74,0.00,,OVC019,0.00,0.00,VWS V14.00,2013-03-24 00:52:00,
2013-03-23 19:55:00,34.1,27.0,30.09,NNW,342,4.0,6.0,75,0.00,,OVC019,0.00,0.00,VWS V14.00,2013-03-24 00:55:00,
2013-03-23 19:57:00,34.1,27.3,30.09,North,5,2.0,9.0,76,0.00,,OVC019,0.00,0.00,VWS V14.00,2013-03-24 00:57:00,
2013-03-23 20:00:00,34.0,27.2,30.10,North,355,7.0,8.0,76,0.00,,OVC018,0.00,0.00,VWS V14.00,2013-03-24 01:00:00,
2013-03-23 20:02:00,34.0,27.2,30.10,North,355,6.0,8.0,76,0.00,,OVC018,0.00,0.00,VWS V14.00,2013-03-24 01:02:00,
2013-03-23 20:03:00,34.0,27.2,30.10,NNW,347,5.0,8.0,76,0.00,,OVC018,0.00,0.00,VWS V14.00,2013-03-24 01:03:00,
2013-03-23 20:05:00,34.0,27.2,30.10,North,355,4.0,8.0,76,0.00,,BKN100,0.00,0.00,VWS V14.00,2013-03-24 01:05:00,
2013-03-23 20:06:00,33.9,27.1,30.10,NNW,343,6.0,10.0,76,0.00,,OVC018,0.00,0.00,VWS V14.00,2013-03-24 01:06:00,
2013-03-23 20:07:00,33.9,26.8,30.10,North,9,4.0,10.0,75,0.00,,OVC018,0.00,0.00,VWS V14.00,2013-03-24 01:07:00,
2013-03-23 20:08:00,33.9,26.8,30.10,North,355,7.0,10.0,75,0.00,,OVC018,0.00,0.00,VWS V14.00,2013-03-24 01:08:00,
2013-03-23 20:10:00,33.9,26.8,30.10,North,355,8.0,10.0,75,0.00,,BKN100,0.00,0.00,VWS V14.00,2013-03-24 01:10:00,
2013-03-23 20:11:00,33.8,26.7,30.10,NNW,346,7.0,10.0,75,0.00,,OVC018,0.00,0.00,VWS V14.00,2013-03-24 01:11:00,
2013-03-23 20:12:00,33.7,26.6,30.10,North,9,3.0,10.0,75,0.00,,OVC018,0.00,0.00,VWS V14.00,2013-03-24 01:12:00,
2013-03-23 20:13:00,33.7,26.6,30.10,North,9,4.0,10.0,75,0.00,,OVC018,0.00,0.00,VWS V14.00,2013-03-24 01:13:00,
2013-03-23 20:14:00,33.7,26.6,30.10,NNE,13,7.0,10.0,75,0.00,,OVC018,0.00,0.00,VWS V14.00,2013-03-24 01:14:00,
2013-03-23 20:15:00,33.7,26.6,30.10,NNE,13,7.0,10.0,75,0.00,,BKN100,0.00,0.00,VWS V14.00,2013-03-24 01:15:00,
2013-03-23 20:16:00,33.7,26.6,30.10,NNW,333,5.0,12.0,75,0.00,,OVC018,0.00,0.00,VWS V14.00,2013-03-24 01:16:00,
2013-03-23 20:17:00,33.6,26.2,30.10,NNE,15,4.0,12.0,74,0.00,,OVC018,0.00,0.00,VWS V14.00,2013-03-24 01:17:00,
2013-03-23 20:18:00,33.6,26.2,30.10,North,350,9.0,12.0,74,0.00,,OVC018,0.00,0.00,VWS V14.00,2013-03-24 01:18:00,
2013-03-23 20:19:00,33.6,26.2,30.10,North,5,5.0,5.0,74,0.00,,OVC018,0.00,0.00,VWS V14.00,2013-03-24 01:19:00,
2013-03-23 20:20:00,33.6,26.2,30.10,NNE,13,4.0,12.0,74,0.00,,BKN100,0.00,0.00,VWS V14.00,2013-03-24 01:20:00,
2013-03-23 20:22:00,33.5,26.1,30.10,North,360,4.0,9.0,74,0.00,,,0.00,0.00,VWS V14.00,2013-03-24 01:22:00,
2013-03-23 20:23:00,33.5,26.1,30.10,NNE,14,6.0,10.0,74,0.00,,,0.00,0.00,VWS V14.00,2013-03-24 01:23:00,
2013-03-23 20:24:00,33.5,26.1,30.10,NNE,19,6.0,9.0,74,0.00,,,0.00,0.00,VWS V14.00,2013-03-24 01:24:00,
2013-03-23 20:25:00,33.5,26.1,30.10,ENE,77,3.0,12.0,74,0.00,,BKN100,0.00,0.00,VWS V14.00,2013-03-24 01:25:00,
2013-03-23 20:27:00,33.5,26.1,30.10,North,355,6.0,11.0,74,0.00,,,0.00,0.00,VWS V14.00,2013-03-24 01:27:00,
2013-03-23 20:28:00,33.4,26.0,30.10,North,360,5.0,11.0,74,0.00,,,0.00,0.00,VWS V14.00,2013-03-24 01:28:00,
2013-03-23 20:29:00,33.5,26.1,30.10,NNE,25,4.0,9.0,74,0.00,,,0.00,0.00,VWS V14.00,2013-03-24 01:29:00,
2013-03-23 20:30:00,33.5,26.1,30.10,North,5,9.0,11.0,74,0.00,,BKN100,0.00,0.00,VWS V14.00,2013-03-24 01:30:00,
2013-03-23 20:32:00,33.4,26.0,30.10,North,5,6.0,10.0,74,0.00,,,0.00,0.00,VWS V14.00,2013-03-24 01:32:00,
2013-03-23 20:33:00,33.4,26.0,30.11,North,355,6.0,10.0,74,0.00,,,0.00,0.00,VWS V14.00,2013-03-24 01:33:00,
2013-03-23 20:34:00,33.4,26.0,30.11,NNW,344,5.0,10.0,74,0.00,,,0.00,0.00,VWS V14.00,2013-03-24 01:34:00,
2013-03-23 20:35:00,33.4,26.0,30.11,NE,39,6.0,10.0,74,0.00,,BKN100,0.00,0.00,VWS V14.00,2013-03-24 01:35:00,
2013-03-23 20:37:00,33.4,26.0,30.11,North,11,5.0,10.0,74,0.00,,,0.00,0.00,VWS V14.00,2013-03-24 01:37:00,
2013-03-23 20:38:00,33.3,25.9,30.11,North,360,11.0,11.0,74,0.00,,,0.00,0.00,VWS V14.00,2013-03-24 01:38:00,
2013-03-23 20:39:00,33.3,25.6,30.11,NNW,346,7.0,11.0,73,0.00,,,0.00,0.00,VWS V14.00,2013-03-24 01:39:00,
2013-03-23 20:40:00,33.3,25.6,30.11,NNE,19,7.0,9.0,73,0.00,,OVC037,0.00,0.00,VWS V14.00,2013-03-24 01:40:00,
2013-03-23 20:42:00,33.3,25.9,30.11,North,350,5.0,9.0,74,0.00,,OVC037,0.00,0.00,VWS V14.00,2013-03-24 01:42:00,
2013-03-23 20:43:00,33.3,25.9,30.11,NNW,346,4.0,9.0,74,0.00,,OVC037,0.00,0.00,VWS V14.00,2013-03-24 01:43:00,
2013-03-23 20:44:00,33.2,25.8,30.11,NNE,13,9.0,11.0,74,0.00,,OVC037,0.00,0.00,VWS V14.00,2013-03-24 01:44:00,
2013-03-23 20:45:00,33.3,25.9,30.11,North,350,7.0,14.0,74,0.00,,OVC037,0.00,0.00,VWS V14.00,2013-03-24 01:45:00,
2013-03-23 20:47:00,33.2,25.5,30.11,NNE,22,8.0,14.0,73,0.00,,OVC037,0.00,0.00,VWS V14.00,2013-03-24 01:47:00,
2013-03-23 20:48:00,33.2,25.5,30.11,NNW,346,8.0,14.0,73,0.00,,OVC037,0.00,0.00,VWS V14.00,2013-03-24 01:48:00,
2013-03-23 20:50:00,33.2,25.5,30.11,North,350,10.0,11.0,73,0.00,,OVC037,0.00,0.00,VWS V14.00,2013-03-24 01:50:00,
2013-03-23 20:53:00,33.2,25.5,30.11,NNE,16,10.0,12.0,73,0.00,,OVC037,0.00,0.00,VWS V14.00,2013-03-24 01:53:00,
2013-03-23 20:55:00,33.2,25.5,30.11,NNE,15,3.0,9.0,73,0.00,,OVC037,0.00,0.00,VWS V14.00,2013-03-24 01:55:00,
2013-03-23 20:58:00,33.1,25.7,30.11,NNE,32,4.0,9.0,74,0.00,,OVC037,0.00,0.00,VWS V14.00,2013-03-24 01:58:00,
2013-03-23 21:00:00,33.1,25.7,30.11,NNE,28,5.0,10.0,74,0.00,,OVC038,0.00,0.00,VWS V14.00,2013-03-24 02:00:00,
2013-03-23 21:03:00,33.1,26.0,30.11,North,5,7.0,11.0,75,0.00,,OVC038,0.00,0.00,VWS V14.00,2013-03-24 02:03:00,
2013-03-23 21:04:00,33.1,26.0,30.11,NNE,17,8.0,11.0,75,0.00,,OVC038,0.00,0.00,VWS V14.00,2013-03-24 02:04:00,
2013-03-23 21:05:00,33.1,26.0,30.11,North,5,10.0,10.0,75,0.00,,OVC038,0.00,0.00,VWS V14.00,2013-03-24 02:05:00,
2013-03-23 21:09:00,33.0,26.0,30.11,North,9,7.0,11.0,75,0.00,,OVC038,0.00,0.00,VWS V14.00,2013-03-24 02:09:00,
2013-03-23 21:10:00,33.0,26.0,30.12,North,360,6.0,11.0,75,0.00,,OVC038,0.00,0.00,VWS V14.00,2013-03-24 02:10:00,
2013-03-23 21:14:00,33.0,26.0,30.12,NNW,335,9.0,11.0,75,0.00,,OVC038,0.00,0.00,VWS V14.00,2013-03-24 02:14:00,
2013-03-23 21:15:00,33.0,26.0,30.12,NNW,335,9.0,11.0,75,0.00,,BKN100,0.00,0.00,VWS V14.00,2013-03-24 02:15:00,
2013-03-23 21:16:00,33.0,25.6,30.11,NNE,21,5.0,12.0,74,0.00,,OVC038,0.00,0.00,VWS V14.00,2013-03-24 02:16:00,
2013-03-23 21:19:00,33.0,25.3,30.12,North,355,5.0,5.0,73,0.00,,OVC038,0.00,0.00,VWS V14.00,2013-03-24 02:19:00,
2013-03-23 21:20:00,33.0,25.3,30.12,NNE,25,4.0,12.0,73,0.00,,BKN100,0.00,0.00,VWS V14.00,2013-03-24 02:20:00,
2013-03-23 21:21:00,32.9,25.2,30.12,NNE,14,5.0,8.0,73,0.00,,,0.00,0.00,VWS V14.00,2013-03-24 02:21:00,
2013-03-23 21:24:00,32.9,25.5,30.12,NNW,348,7.0,7.0,74,0.00,,,0.00,0.00,VWS V14.00,2013-03-24 02:24:00,
2013-03-23 21:25:00,32.9,25.5,30.12,NNE,19,6.0,10.0,74,0.00,,OVC015,0.00,0.00,VWS V14.00,2013-03-24 02:25:00,
2013-03-23 21:26:00,32.9,25.2,30.12,North,5,6.0,12.0,73,0.00,,,0.00,0.00,VWS V14.00,2013-03-24 02:26:00,
2013-03-23 21:27:00,32.9,25.5,30.12,NNE,30,6.0,12.0,74,0.00,,,0.00,0.00,VWS V14.00,2013-03-24 02:27:00,
2013-03-23 21:29:00,32.8,25.1,30.12,North,360,5.0,9.0,73,0.00,,,0.00,0.00,VWS V14.00,2013-03-24 02:29:00,
2013-03-23 21:30:00,32.9,25.2,30.12,NNE,26,6.0,13.0,73,0.00,,BKN100,0.00,0.00,VWS V14.00,2013-03-24 02:30:00,
2013-03-23 21:32:00,32.8,25.4,30.12,North,9,2.0,11.0,74,0.00,,,0.00,0.00,VWS V14.00,2013-03-24 02:32:00,
2013-03-23 21:34:00,32.8,25.4,30.12,NNE,30,3.0,7.0,74,0.00,,,0.00,0.00,VWS V14.00,2013-03-24 02:34:00,
2013-03-23 21:35:00,32.8,25.4,30.12,North,9,11.0,11.0,74,0.00,,,0.00,0.00,VWS V14.00,2013-03-24 02:35:00,
2013-03-23 21:37:00,32.8,25.4,30.12,North,9,7.0,13.0,74,0.00,,,0.00,0.00,VWS V14.00,2013-03-24 02:37:00,
2013-03-23 21:38:00,32.8,25.4,30.12,North,5,5.0,13.0,74,0.00,,,0.00,0.00,VWS V14.00,2013-03-24 02:38:00,
2013-03-23 21:39:00,32.8,25.4,30.12,NNE,23,7.0,8.0,74,0.00,,,0.00,0.00,VWS V14.00,2013-03-24 02:39:00,
2013-03-23 21:40:00,32.8,25.4,30.12,North,355,5.0,8.0,74,0.00,,,0.00,0.00,VWS V14.00,2013-03-24 02:40:00,
2013-03-23 21:42:00,32.7,25.3,30.11,North,355,5.0,14.0,74,0.00,,,0.00,0.00,VWS V14.00,2013-03-24 02:42:00,
2013-03-23 21:43:00,32.7,25.3,30.11,North,11,8.0,14.0,74,0.00,,,0.00,0.00,VWS V14.00,2013-03-24 02:43:00,
2013-03-23 21:45:00,32.7,25.3,30.11,NNE,29,6.0,9.0,74,0.00,,,0.00,0.00,VWS V14.00,2013-03-24 02:45:00,
2013-03-23 21:47:00,32.7,25.3,30.11,North,360,6.0,11.0,74,0.00,,,0.00,0.00,VWS V14.00,2013-03-24 02:47:00,
2013-03-23 21:48:00,32.7,25.3,30.12,North,355,9.0,11.0,74,0.00,,,0.00,0.00,VWS V14.00,2013-03-24 02:48:00,
2013-03-23 21:50:00,32.7,25.3,30.12,North,350,7.0,9.0,74,0.00,,,0.00,0.00,VWS V14.00,2013-03-24 02:50:00,
2013-03-23 21:51:00,32.7,25.3,30.12,North,5,7.0,9.0,74,0.00,,,0.00,0.00,VWS V14.00,2013-03-24 02:51:00,
2013-03-23 21:52:00,32.7,25.7,30.12,North,9,4.0,9.0,75,0.00,,,0.00,0.00,VWS V14.00,2013-03-24 02:52:00,
2013-03-23 21:53:00,32.7,25.7,30.12,North,11,5.0,9.0,75,0.00,,,0.00,0.00,VWS V14.00,2013-03-24 02:53:00,
2013-03-23 21:55:00,32.6,25.6,30.12,NNW,338,10.0,10.0,75,0.00,,,0.00,0.00,VWS V14.00,2013-03-24 02:55:00,
2013-03-23 21:57:00,32.6,25.6,30.12,NNE,13,8.0,11.0,75,0.00,,,0.00,0.00,VWS V14.00,2013-03-24 02:57:00,
2013-03-23 21:58:00,32.6,25.6,30.11,NNE,13,6.0,11.0,75,0.00,,,0.00,0.00,VWS V14.00,2013-03-24 02:58:00,
2013-03-23 22:00:00,32.6,25.6,30.11,NE,49,4.0,10.0,75,0.00,,OVC028,0.00,0.00,VWS V14.00,2013-03-24 03:00:00,
2013-03-23 22:02:00,32.6,25.6,30.11,NNW,348,3.0,10.0,75,0.00,,OVC028,0.00,0.00,VWS V14.00,2013-03-24 03:02:00,
2013-03-23 22:03:00,32.6,25.6,30.11,North,5,7.0,10.0,75,0.00,,OVC028,0.00,0.00,VWS V14.00,2013-03-24 03:03:00,
2013-03-23 22:05:00,32.6,25.6,30.11,NE,36,5.0,8.0,75,0.00,,OVC028,0.00,0.00,VWS V14.00,2013-03-24 03:05:00,
2013-03-23 22:08:00,32.6,25.6,30.11,North,360,10.0,10.0,75,0.00,,OVC028,0.00,0.00,VWS V14.00,2013-03-24 03:08:00,
2013-03-23 22:10:00,32.6,25.6,30.11,NNE,24,8.0,10.0,75,0.00,,OVC028,0.00,0.00,VWS V14.00,2013-03-24 03:10:00,
2013-03-23 22:13:00,32.6,25.9,30.11,North,9,5.0,10.0,76,0.00,,OVC028,0.00,0.00,VWS V14.00,2013-03-24 03:13:00,
2013-03-23 22:14:00,32.5,25.8,30.11,North,349,3.0,5.0,76,0.00,,OVC028,0.00,0.00,VWS V14.00,2013-03-24 03:14:00,
2013-03-23 22:15:00,32.5,25.8,30.11,North,9,8.0,12.0,76,0.00,,OVC028,0.00,0.00,VWS V14.00,2013-03-24 03:15:00,
2013-03-23 22:18:00,32.5,25.8,30.11,North,355,7.0,12.0,76,0.00,,OVC028,0.00,0.00,VWS V14.00,2013-03-24 03:18:00,
2013-03-23 22:19:00,32.5,25.8,30.11,North,355,3.0,5.0,76,0.00,,OVC028,0.00,0.00,VWS V14.00,2013-03-24 03:19:00,
2013-03-23 22:20:00,32.5,25.8,30.11,North,351,4.0,12.0,76,0.00,,BKN100,0.00,0.00,VWS V14.00,2013-03-24 03:20:00,
2013-03-23 22:21:00,32.5,25.8,30.11,NNW,338,6.0,15.0,76,0.00,,OVC026,0.00,0.00,VWS V14.00,2013-03-24 03:21:00,
2013-03-23 22:23:00,32.5,25.8,30.11,North,355,6.0,15.0,76,0.00,,OVC026,0.00,0.00,VWS V14.00,2013-03-24 03:23:00,
2013-03-23 22:24:00,32.5,25.8,30.11,NE,43,4.0,15.0,76,0.00,,OVC026,0.00,0.00,VWS V14.00,2013-03-24 03:24:00,
2013-03-23 22:25:00,32.5,25.8,30.11,NE,40,4.0,15.0,76,0.00,,BKN100,0.00,0.00,VWS V14.00,2013-03-24 03:25:00,
2013-03-23 22:27:00,32.5,26.1,30.11,NW,317,6.0,10.0,77,0.00,,OVC026,0.00,0.00,VWS V14.00,2013-03-24 03:27:00,
2013-03-23 22:28:00,32.5,26.1,30.11,NNE,13,1.0,10.0,77,0.00,,OVC026,0.00,0.00,VWS V14.00,2013-03-24 03:28:00,
2013-03-23 22:29:00,32.5,26.1,30.11,NNW,346,4.0,10.0,77,0.00,,OVC026,0.00,0.00,VWS V14.00,2013-03-24 03:29:00,
2013-03-23 22:30:00,32.5,26.1,30.11,NNW,346,4.0,10.0,77,0.00,,BKN100,0.00,0.00,VWS V14.00,2013-03-24 03:30:00,
2013-03-23 22:32:00,32.5,26.1,30.11,North,9,9.0,10.0,77,0.00,,OVC026,0.00,0.00,VWS V14.00,2013-03-24 03:32:00,
2013-03-23 22:33:00,32.4,26.0,30.11,North,360,6.0,10.0,77,0.00,,OVC026,0.00,0.00,VWS V14.00,2013-03-24 03:33:00,
2013-03-23 22:34:00,32.4,26.0,30.10,North,11,5.0,5.0,77,0.00,,OVC026,0.00,0.00,VWS V14.00,2013-03-24 03:34:00,
2013-03-23 22:35:00,32.4,26.0,30.10,NNE,27,6.0,7.0,77,0.00,,OVC026,0.00,0.00,VWS V14.00,2013-03-24 03:35:00,
2013-03-23 22:37:00,32.4,26.0,30.10,NNE,24,4.0,9.0,77,0.00,,OVC026,0.00,0.00,VWS V14.00,2013-03-24 03:37:00,
2013-03-23 22:38:00,32.4,26.0,30.10,NNW,342,4.0,11.0,77,0.00,,OVC026,0.00,0.00,VWS V14.00,2013-03-24 03:38:00,
2013-03-23 22:39:00,32.4,26.0,30.10,NNW,327,6.0,7.0,77,0.00,,OVC026,0.00,0.00,VWS V14.00,2013-03-24 03:39:00,
2013-03-23 22:40:00,32.4,26.3,30.10,North,355,2.0,7.0,78,0.00,,OVC026,0.00,0.00,VWS V14.00,2013-03-24 03:40:00,
2013-03-23 22:42:00,32.4,26.3,30.10,NNE,27,4.0,7.0,78,0.00,,OVC036,0.00,0.00,VWS V14.00,2013-03-24 03:42:00,
2013-03-23 22:43:00,32.4,26.3,30.10,NNE,23,11.0,11.0,78,0.00,,OVC036,0.00,0.00,VWS V14.00,2013-03-24 03:43:00,
2013-03-23 22:44:00,32.4,26.3,30.10,NNE,17,8.0,9.0,78,0.00,,OVC036,0.00,0.00,VWS V14.00,2013-03-24 03:44:00,
2013-03-23 22:45:00,32.4,26.3,30.10,NNE,16,4.0,10.0,78,0.00,,OVC036,0.00,0.00,VWS V14.00,2013-03-24 03:45:00,
2013-03-23 22:47:00,32.3,26.2,30.10,North,360,10.0,11.0,78,0.00,,OVC036,0.00,0.00,VWS V14.00,2013-03-24 03:47:00,
2013-03-23 22:49:00,32.3,26.2,30.10,NNE,15,7.0,11.0,78,0.00,,OVC036,0.00,0.00,VWS V14.00,2013-03-24 03:49:00,
2013-03-23 22:50:00,32.3,26.2,30.10,North,5,3.0,8.0,78,0.00,,OVC036,0.00,0.00,VWS V14.00,2013-03-24 03:50:00,
2013-03-23 22:53:00,32.4,26.3,30.10,NNE,30,5.0,10.0,78,0.00,,OVC036,0.00,0.00,VWS V14.00,2013-03-24 03:53:00,
2013-03-23 22:54:00,32.3,26.2,30.10,North,355,10.0,12.0,78,0.00,,OVC036,0.00,0.00,VWS V14.00,2013-03-24 03:54:00,
2013-03-23 22:55:00,32.3,26.2,30.10,North,351,5.0,13.0,78,0.00,,OVC036,0.00,0.00,VWS V14.00,2013-03-24 03:55:00,
2013-03-23 22:59:00,32.3,26.2,30.10,NNE,24,11.0,13.0,78,0.00,,OVC036,0.00,0.00,VWS V14.00,2013-03-24 03:59:00,
2013-03-23 23:00:00,32.3,26.2,30.10,North,355,6.0,11.0,78,0.00,,OVC036,0.00,0.00,VWS V14.00,2013-03-24 04:00:00,
2013-03-23 23:05:00,32.3,26.2,30.10,NNW,333,9.0,12.0,78,0.00,,OVC046,0.00,0.00,VWS V14.00,2013-03-24 04:05:00,
2013-03-23 23:10:00,32.3,25.9,30.09,East,81,5.0,13.0,77,0.00,,OVC046,0.00,0.00,VWS V14.00,2013-03-24 04:10:00,
2013-03-23 23:15:00,32.3,25.9,30.09,North,350,4.0,6.0,77,0.00,,OVC046,0.00,0.00,VWS V14.00,2013-03-24 04:15:00,
2013-03-23 23:20:00,32.3,25.9,30.09,North,5,5.0,10.0,77,0.00,,OVC075,0.00,0.00,VWS V14.00,2013-03-24 04:20:00,
2013-03-23 23:21:00,32.3,25.9,30.09,North,355,8.0,10.0,77,0.00,,OVC075,0.00,0.00,VWS V14.00,2013-03-24 04:21:00,
2013-03-23 23:25:00,32.2,25.8,30.09,NNE,25,5.0,9.0,77,0.00,,OVC075,0.00,0.00,VWS V14.00,2013-03-24 04:25:00,
2013-03-23 23:27:00,32.2,25.8,30.09,North,5,7.0,9.0,77,0.00,,OVC075,0.00,0.00,VWS V14.00,2013-03-24 04:27:00,
2013-03-23 23:30:00,32.2,25.8,30.09,NNE,26,5.0,10.0,77,0.00,,OVC075,0.00,0.00,VWS V14.00,2013-03-24 04:30:00,
2013-03-23 23:31:00,32.2,25.8,30.09,North,11,2.0,10.0,77,0.00,,OVC075,0.00,0.00,VWS V14.00,2013-03-24 04:31:00,
2013-03-23 23:32:00,32.2,25.5,30.09,NE,49,3.0,10.0,76,0.00,,OVC075,0.00,0.00,VWS V14.00,2013-03-24 04:32:00,
2013-03-23 23:35:00,32.2,25.5,30.09,NNW,338,6.0,9.0,76,0.00,,OVC075,0.00,0.00,VWS V14.00,2013-03-24 04:35:00,
2013-03-23 23:36:00,32.1,25.4,30.08,NNE,30,5.0,10.0,76,0.00,,OVC075,0.00,0.00,VWS V14.00,2013-03-24 04:36:00,
2013-03-23 23:37:00,32.1,25.4,30.09,NE,40,2.0,10.0,76,0.00,,OVC075,0.00,0.00,VWS V14.00,2013-03-24 04:37:00,
2013-03-23 23:40:00,32.1,25.1,30.08,NNE,24,4.0,7.0,75,0.00,,BKN075,0.00,0.00,VWS V14.00,2013-03-24 04:40:00,
2013-03-23 23:41:00,32.1,25.1,30.08,NNE,17,7.0,7.0,75,0.00,,BKN075,0.00,0.00,VWS V14.00,2013-03-24 04:41:00,
2013-03-23 23:43:00,32.1,25.1,30.08,NE,44,7.0,8.0,75,0.00,,BKN075,0.00,0.00,VWS V14.00,2013-03-24 04:43:00,
2013-03-23 23:45:00,32.1,25.1,30.08,NE,44,5.0,13.0,75,0.00,,BKN075,0.00,0.00,VWS V14.00,2013-03-24 04:45:00,
2013-03-23 23:46:00,32.1,25.1,30.08,NE,55,4.0,13.0,75,0.00,,BKN075,0.00,0.00,VWS V14.00,2013-03-24 04:46:00,
2013-03-23 23:47:00,32.1,25.1,30.08,ENE,61,5.0,13.0,75,0.00,,BKN075,0.00,0.00,VWS V14.00,2013-03-24 04:47:00,
2013-03-23 23:48:00,32.1,24.8,30.08,NE,40,10.0,13.0,74,0.00,,BKN075,0.00,0.00,VWS V14.00,2013-03-24 04:48:00,
2013-03-23 23:50:00,32.1,25.1,30.08,NE,53,8.0,8.0,75,0.00,,BKN075,0.00,0.00,VWS V14.00,2013-03-24 04:50:00,
2013-03-23 23:51:00,32.0,25.0,30.08,NE,34,6.0,9.0,75,0.00,,BKN075,0.00,0.00,VWS V14.00,2013-03-24 04:51:00,
2013-03-23 23:52:00,32.0,25.0,30.08,North,355,5.0,13.0,75,0.00,,BKN075,0.00,0.00,VWS V14.00,2013-03-24 04:52:00,
2013-03-23 23:53:00,32.0,24.7,30.08,NE,56,5.0,13.0,74,0.00,,BKN075,0.00,0.00,VWS V14.00,2013-03-24 04:53:00,
2013-03-23 23:55:00,32.0,24.7,30.08,NE,40,7.0,15.0,74,0.00,,BKN075,0.00,0.00,VWS V14.00,2013-03-24 04:55:00,
2013-03-23 23:56:00,32.0,24.7,30.08,NNE,21,9.0,15.0,74,0.00,,BKN075,0.00,0.00,VWS V14.00,2013-03-24 04:56:00,
2013-03-23 23:57:00,32.0,24.3,30.08,NE,53,8.0,15.0,73,0.00,,BKN075,0.00,0.00,VWS V14.00,2013-03-24 04:57:00,
2013-03-23 23:58:00,32.0,24.7,30.08,NNE,12,10.0,15.0,74,0.00,,BKN075,0.00,0.00,VWS V14.00,2013-03-24 04:58:00,